[{"header": {"dx": 0.06612293990616946, "dy": 0.0552356325346848, "nx": 98, "ny": 59, "la1": 35.046912555036876, "la2": 31.78801023549047, "lo1": -121.43107172385933, "lo2": -114.95102361305473, "refTime": "2026041213", "parameterCategory": 1, "parameterNumber": 2}, "data": [7.6, 7.6, 7.6, 7.15, 7.15, 7.15, 6.71, 6.26, 5.81, 6.26, 6.71, 7.15, 5.36, 3.13, 2.68, 2.24, 4.47, 5.36, 5.81, 6.26, 6.71, 6.26, 4.66, 3.48, 3.07, 4.11, 3.84, 2.41, 1.33, -0.0, -0.0, -0.0, -0.0, -0.0, -0.89, -0.89, 0.0, 0.45, -0.0, -0.0, -0.0, 0.7, 0.85, 3.48, 5.81, 5.34, 6.79, 7.47, 7.89, 7.6, 7.03, 5.72, 5.43, 5.77, 6.06, 6.06, 7.06, 7.69, 8.24, 8.63, 8.55, 5.43, 1.74, 0.76, 1.6, 3.48, 5.43, 6.94, 7.89, 8.4, 8.19, 7.45, 7.11, 6.26, 5.81, 4.24, 1.2, -0.54, -1.6, -1.79, -2.24, -2.24, -2.6, -2.6, -2.8, -3.2, -1.86, -0.99, 0.0, 1.88, 3.48, 3.72, 4.43, 4.19, 1.9, 0.0, 0.45, -0.0, 7.58, 7.6, 7.6, 7.6, 7.15, 7.15, 6.71, 6.26, 5.81, 6.26, 6.26, 5.36, 4.47, 3.13, 4.92, 4.47, 2.24, 4.92, 5.36, 6.26, 7.15, 6.61, 4.65, 3.49, 2.98, 3.22, 3.07, 1.33, -0.0, -0.0, -0.0, 0.74, 1.52, 0.61, -0.45, -0.8, 0.45, 0.0, -0.0, -0.0, -0.0, 1.08, 3.48, 4.8, 5.86, 6.79, 7.71, 7.71, 7.71, 6.94, 6.0, 4.84, 5.09, 5.36, 5.36, 6.08, 7.07, 7.67, 8.24, 9.08, 7.89, 3.84, 1.6, 1.49, 2.41, 4.22, 5.34, 6.51, 6.79, 7.28, 7.28, 6.07, 4.92, 4.92, 3.13, 2.12, 0.54, -0.54, -1.6, -1.79, -2.24, -2.24, -2.6, -2.6, -2.8, -3.2, -1.86, -0.99, 0.0, 1.88, 3.48, 3.72, 4.43, 4.19, 1.9, 0.0, 0.45, -0.0, 7.58, 7.6, 7.6, 7.6, 7.6, 7.15, 6.71, 6.26, 6.26, 6.26, 6.26, 6.71, 4.47, 3.58, 2.68, 2.24, 2.24, 4.47, 5.81, 6.71, 7.15, 7.06, 4.43, 3.45, 3.2, 3.11, 2.98, 1.41, -0.0, -1.41, -0.0, 0.77, 2.28, 1.96, 1.24, 0.0, 0.0, 0.0, -0.0, -0.0, 0.66, 1.84, 3.83, 5.34, 6.07, 6.98, 6.98, 6.55, 6.51, 5.34, 4.4, 4.46, 4.46, 5.43, 5.09, 6.07, 7.03, 7.6, 8.55, 8.4, 6.0, 2.07, 1.41, 2.53, 3.49, 4.8, 5.43, 6.07, 7.03, 7.07, 7.07, 6.94, 4.85, 1.79, 0.45, -0.0, -1.58, -1.24, -2.17, -3.13, -3.13, -3.07, -2.68, -2.68, -3.13, -3.58, -2.12, -0.8, 0.54, 2.53, 4.46, 3.79, 2.15, 0.99, 0.45, -0.45, 0.0, 0.45, 7.58, 7.58, 7.6, 7.6, 7.6, 7.15, 6.71, 6.26, 6.26, 6.26, 6.26, 6.71, 4.92, 3.58, 3.13, 2.68, 2.68, 4.47, 5.81, 7.15, 7.15, 5.7, 3.48, 2.4, 2.47, 3.2, 2.2, 1.47, -0.0, -1.47, -1.41, -0.0, 1.52, 4.4, 4.22, 2.53, 1.74, 1.58, 0.57, -0.0, 0.7, 2.84, 3.83, 5.16, 5.75, 5.77, 5.31, 4.87, 4.41, 4.24, 4.0, 4.4, 4.8, 5.05, 5.05, 6.4, 6.94, 7.89, 8.63, 7.21, 3.49, 1.49, 2.2, 2.79, 4.46, 5.06, 5.59, 6.23, 7.55, 7.8, 8.53, 8.3, 6.39, 0.6, -2.68, -3.13, -2.68, -2.24, -2.17, -3.13, -4.02, -3.51, -3.07, -2.68, -3.13, -2.68, -1.79, 0.0, 1.2, 3.16, 3.84, 1.9, 0.63, 0.0, -0.45, 0.45, 0.0, 0.0, 7.58, 7.58, 7.6, 7.6, 7.6, 7.6, 7.15, 6.26, 6.26, 6.26, 6.26, 6.71, 4.92, 3.58, 3.13, 3.13, 3.13, 3.58, 5.36, 6.66, 7.15, 5.2, 2.73, 1.08, 0.81, 1.1, 2.12, 1.14, -0.0, -0.66, -1.84, -1.4, -0.0, 3.2, 5.72, 6.01, 5.37, 4.65, 1.24, -0.0, 0.7, 2.79, 3.84, 4.4, 4.0, 4.15, 3.74, 3.07, 3.04, 3.74, 3.74, 4.8, 4.46, 5.05, 6.0, 6.94, 7.71, 7.71, 7.71, 5.59, 1.88, 1.49, 2.07, 3.22, 3.91, 5.41, 5.51, 6.33, 7.01, 8.56, 9.1, 9.56, 9.21, 3.79, -1.7, -4.92, -3.13, -2.24, -1.7, -3.13, -4.47, -3.58, -2.68, -2.68, -2.68, -1.79, 0.45, 1.2, 2.5, 3.14, 2.5, 1.34, -0.0, -0.63, -0.89, 0.0, 0.0, 0.0, 7.6, 7.6, 7.6, 7.6, 7.6, 7.6, 7.15, 6.71, 6.26, 6.26, 6.71, 6.71, 4.92, 3.58, 3.13, 2.68, 2.68, 3.13, 5.75, 6.65, 6.65, 4.01, 2.49, 1.23, -0.0, -0.0, 1.23, 1.23, 1.1, 1.05, -0.0, -1.26, -0.0, 2.53, 4.84, 5.09, 5.77, 6.44, 1.9, -0.54, -0.0, 2.2, 3.79, 3.79, 3.79, 4.46, 4.46, 3.07, 2.6, 2.6, 3.2, 4.22, 4.8, 5.34, 6.28, 7.71, 7.45, 7.45, 6.98, 4.24, 1.4, 0.61, 2.2, 2.99, 3.69, 4.75, 5.99, 6.09, 6.71, 7.82, 8.6, 8.94, 8.65, 8.32, 2.86, -1.2, -2.68, -2.68, -2.6, -2.68, -3.58, -3.13, -2.68, -1.79, -1.79, -0.89, 0.0, 1.79, 2.91, 2.5, 1.86, 0.89, -0.0, -0.63, -0.45, 0.63, 0.6, 0.0, 7.6, 7.6, 7.6, 7.6, 7.6, 7.15, 7.15, 6.71, 6.71, 6.26, 6.71, 6.71, 5.36, 3.58, 4.92, 2.24, 2.68, 3.58, 5.31, 5.31, 4.66, 2.53, 0.81, -0.0, -0.0, -0.0, -0.0, 1.14, 1.23, 2.47, 1.98, 0.85, 0.85, 2.53, 3.48, 2.98, 4.29, 6.87, 2.84, -0.0, -0.0, 1.19, 3.76, 3.45, 4.47, 4.81, 5.43, 4.43, 3.16, 4.29, 4.29, 2.91, 4.66, 5.64, 6.66, 7.15, 6.71, 5.81, 4.02, 2.4, 0.65, 0.7, 1.41, 2.23, 3.06, 4.6, 6.31, 6.95, 7.06, 7.67, 8.14, 7.47, 6.85, 7.21, 6.79, 3.07, 0.0, -1.86, -2.4, -1.79, -2.68, -2.6, -1.86, -1.7, -1.2, -0.45, 0.0, 1.34, 1.79, 1.26, 0.0, 0.0, -0.0, -0.63, 0.45, 0.8, 0.57, 0.0, 7.6, 7.6, 7.6, 7.15, 7.15, 7.15, 7.15, 6.71, 6.71, 6.26, 6.26, 6.71, 4.92, 3.58, 5.81, 2.68, 2.63, 3.07, 3.07, 2.68, 2.24, 1.6, -0.0, -1.0, -0.85, -0.0, -0.0, -0.0, 1.3, 3.49, 3.49, 2.6, 2.6, 3.49, 2.98, 2.53, 3.48, 5.82, 4.65, 1.49, -0.0, 1.27, 2.4, 3.76, 4.74, 4.75, 4.83, 4.46, 5.49, 5.44, 2.5, 2.6, 3.58, 5.36, 6.26, 6.21, 5.75, 3.07, 1.2, -0.0, 0.65, 0.73, 0.7, 2.26, 3.0, 3.9, 6.39, 7.03, 6.55, 7.15, 7.6, 6.66, 5.77, 5.64, 5.32, 4.88, 3.13, 0.63, -0.0, 0.0, 0.0, -1.86, -1.86, -1.49, -1.27, -0.89, -0.45, -0.0, 0.0, -0.63, -1.2, -0.89, -1.26, -0.63, 0.45, 1.26, 0.6, 0.0, 7.6, 7.6, 7.15, 7.15, 7.15, 7.15, 7.15, 6.71, 6.71, 6.26, 6.71, 6.68, 4.92, 4.02, 4.02, 3.13, 3.07, 3.07, 2.6, 4.02, 4.47, 4.02, 1.34, -0.0, -0.8, -0.0, -1.4, -0.8, -0.0, 2.73, 2.73, 1.19, 1.19, 2.4, 3.35, 3.58, 2.24, 2.68, 3.72, 1.27, -0.0, 1.41, 2.73, 4.11, 4.74, 3.79, 3.52, 4.6, 6.31, 6.79, 6.64, 3.45, 3.13, 3.97, 5.59, 5.34, 4.09, 2.21, 0.6, 0.4, 0.73, 1.45, 0.7, 1.47, 2.3, 4.19, 6.54, 8.01, 6.98, 6.94, 6.0, 5.6, 5.43, 5.31, 4.66, 3.45, 2.91, 2.6, 1.7, 1.2, 0.95, -1.26, -1.49, -1.7, -1.34, -1.34, -0.8, -0.89, -1.34, -1.7, -1.34, -1.58, -1.58, -0.6, 0.89, 1.34, 0.95, 0.0, 7.6, 7.6, 7.15, 7.15, 7.15, 6.71, 6.71, 6.71, 6.71, 6.26, 6.71, 6.68, 7.07, 7.51, 5.31, 4.85, 3.95, 3.32, 4.8, 4.8, 5.4, 5.36, 3.82, -0.0, -0.0, -0.0, -1.4, -0.6, -0.0, 2.53, 2.84, -0.0, -0.0, 1.58, 3.35, 4.4, 2.8, 1.58, 1.27, 1.41, -0.0, 1.66, 2.68, 3.48, 3.63, 2.51, 3.09, 4.26, 6.24, 6.95, 7.18, 6.05, 4.95, 2.86, 3.13, 2.68, 1.86, 0.0, 0.0, -0.0, 1.6, 1.62, 2.17, 2.35, 3.11, 3.79, 6.0, 7.01, 5.02, 4.36, 3.64, 4.07, 4.74, 4.11, 3.49, 2.53, 1.88, 1.88, 1.61, 1.58, 1.86, 2.24, 0.0, 0.45, 0.45, -0.0, -0.0, 0.0, -1.2, -1.79, -1.7, -1.58, -1.58, -0.8, 0.6, 1.79, 1.2, 0.6, 7.6, 7.6, 7.15, 7.15, 6.71, 6.71, 6.71, 6.71, 6.26, 6.26, 6.68, 7.13, 7.51, 7.51, 6.21, 5.16, 5.59, 6.51, 6.51, 6.28, 4.4, 3.13, 3.58, 0.87, -0.0, -0.0, -0.0, 0.45, 0.0, 0.89, 1.34, 0.63, 0.0, 0.89, 2.24, 4.24, 2.48, -0.0, 0.79, 1.66, 1.49, 2.41, 2.21, 2.73, 2.6, 1.6, 2.47, 3.47, 4.11, 3.9, 4.8, 5.2, 4.71, 3.73, 3.16, 3.11, 2.4, 0.0, -0.89, -0.0, 0.75, 1.6, 2.21, 3.06, 3.78, 4.6, 4.8, 4.5, 2.15, 1.2, 0.61, 1.88, 2.8, 2.73, 2.15, 1.9, 0.54, 0.0, 0.65, 0.71, 0.8, 2.0, 3.07, 2.63, 2.4, 2.4, 1.86, 0.89, -0.45, -1.34, -1.7, -1.26, -1.26, -0.6, -0.0, 1.6, 1.34, 0.0, 8.05, 7.6, 7.15, 7.15, 6.71, 6.71, 6.71, 6.26, 6.26, 6.26, 6.68, 7.13, 7.58, 7.97, 8.41, 8.33, 8.33, 8.17, 8.17, 7.51, 6.6, 5.7, 3.53, 1.9, 1.79, 1.79, 1.79, 1.34, 0.0, 0.0, 0.95, 0.89, 0.45, 1.26, 0.95, 1.6, 1.4, 0.99, 1.74, 2.41, 2.68, 2.41, 1.24, 1.41, 1.3, 0.81, 2.49, 2.49, 2.32, 1.03, 2.31, 3.04, 2.35, 2.28, 2.39, 3.07, 6.14, 6.09, 0.66, -0.8, 0.74, 2.25, 2.25, 1.52, 1.57, 2.32, 2.3, 3.09, 3.87, 3.76, 3.64, 2.4, 1.26, 0.53, 0.0, 0.0, 0.0, -0.57, -0.57, -0.8, 0.45, 1.49, 3.84, 4.4, 4.66, 4.12, 4.0, 2.17, 0.0, -1.34, -1.2, -1.2, -1.2, -0.63, -0.0, 0.89, 0.0, -0.57, 8.05, 7.6, 7.15, 7.15, 6.71, 6.71, 6.71, 6.26, 6.26, 6.23, 6.68, 7.13, 7.58, 7.97, 8.42, 8.86, 9.32, 9.23, 8.77, 8.21, 7.74, 6.3, 4.88, 2.68, 1.34, 1.7, 2.24, 2.24, 1.26, 0.54, 0.57, 0.63, 2.24, 2.24, 0.89, -0.0, -0.0, 1.0, 1.2, 1.98, 1.8, 1.66, 0.79, -0.0, -0.0, -0.0, 1.18, 1.25, 1.07, 1.14, 0.71, 0.72, -0.0, -0.0, -0.0, 2.24, 5.73, 8.93, 4.6, -0.0, -0.0, 2.45, 1.56, -0.0, -0.0, -0.0, -0.0, 1.57, 3.9, 6.97, 8.86, 9.31, 6.68, 2.17, 0.0, 0.0, 0.0, 0.0, 0.0, -1.26, -1.2, 1.2, 3.98, 5.77, 6.07, 6.7, 7.2, 4.93, 1.86, -0.0, -1.2, -1.2, -1.2, -0.89, 0.45, -0.4, -1.24, -1.9, 8.05, 7.6, 7.15, 6.71, 6.71, 6.71, 6.71, 6.26, 6.23, 6.23, 6.68, 7.13, 7.58, 8.03, 8.42, 8.86, 9.32, 9.32, 9.32, 8.77, 8.21, 7.69, 6.47, 4.44, 2.68, 2.24, 2.68, 3.13, 2.63, 1.86, 1.49, 0.95, 2.8, 2.68, 1.0, 1.26, 0.8, 0.85, 0.85, 1.74, 1.6, 0.79, -0.0, -0.0, -0.0, -0.0, -0.0, -0.0, -0.0, -0.0, -0.0, -0.0, -1.18, -1.32, -0.0, 1.52, 3.8, 7.96, 6.67, -0.0, -0.0, 1.11, -0.0, -1.11, -0.79, -0.0, -0.0, -0.0, 3.21, 5.18, 7.54, 10.12, 10.91, 9.49, 4.47, 1.86, 1.7, 3.74, 3.2, 0.45, -1.26, 0.57, 3.32, 4.73, 4.73, 6.79, 8.91, 7.89, 4.66, 2.15, -0.0, -2.12, -2.24, -1.79, -2.0, -2.4, -2.5, -2.8, 7.6, 7.6, 7.15, 6.71, 6.71, 6.71, 6.26, 6.26, 6.23, 6.23, 6.68, 7.13, 7.58, 8.03, 8.47, 8.86, 8.87, 9.32, 9.32, 8.87, 8.77, 8.21, 7.74, 6.23, 3.58, 3.13, 3.13, 3.58, 3.58, 3.07, 2.4, 1.9, 2.8, 2.68, 2.4, 1.9, 1.4, 0.6, 2.53, 1.9, 1.74, -0.0, -0.0, -0.0, -0.0, -0.0, -0.0, -0.0, -0.0, -0.0, -0.0, -0.0, -1.19, -1.27, -0.0, -0.0, 2.32, 5.86, 5.86, 1.09, -0.74, -0.0, -2.13, -2.39, -1.09, -0.0, -0.0, 1.2, 3.68, 4.47, 5.37, 8.88, 11.23, 10.73, 6.26, 3.45, 4.95, 8.27, 9.92, 8.63, 3.07, 1.26, 1.2, 1.2, 0.61, 3.53, 6.22, 7.28, 5.86, 4.84, 1.9, -1.2, -3.58, -4.02, -3.04, -2.91, -3.07, -3.07, 7.6, 7.6, 7.15, 6.71, 6.71, 6.71, 6.26, 6.26, 6.23, 6.23, 6.68, 7.13, 7.13, 7.58, 8.03, 8.47, 8.92, 9.32, 9.32, 9.32, 8.87, 8.77, 8.21, 6.61, 4.47, 3.53, 4.02, 4.47, 4.02, 3.53, 2.8, 2.23, 2.23, 2.68, 2.68, 1.2, 1.6, 1.7, 3.13, 2.8, 1.2, 0.85, -0.0, -0.0, -0.0, -0.0, -0.0, -0.0, -1.27, -1.27, -1.08, -0.0, -0.0, -1.4, -0.0, -0.0, 1.19, 2.49, 3.52, 1.14, -0.0, -1.1, -3.4, -4.75, -2.32, -1.23, -0.0, 1.1, 3.6, 5.37, 5.34, 9.39, 12.07, 9.81, 4.3, 4.6, 7.9, 11.06, 12.87, 12.52, 11.5, 8.55, 2.68, 0.0, -0.76, -0.76, 2.5, 3.13, 3.07, 2.8, 2.5, -1.79, -3.58, -2.24, -2.54, -2.17, -2.63, -2.63, 7.6, 7.15, 7.15, 6.71, 6.71, 6.71, 6.26, 6.26, 6.23, 6.23, 6.68, 6.68, 7.13, 7.58, 8.03, 8.47, 8.92, 9.37, 9.32, 9.32, 8.87, 8.86, 8.77, 7.97, 5.36, 3.98, 3.98, 4.88, 4.92, 4.02, 3.07, 2.4, 2.23, 2.8, 0.89, 1.34, 3.9, 4.02, 3.13, 1.9, 1.4, 0.85, 1.6, -0.0, -0.0, -0.0, -0.0, -0.0, -0.0, -1.9, -2.4, -1.9, -1.2, -1.4, -1.4, -0.0, -0.0, 1.41, 2.73, 2.6, 1.3, -1.19, -4.11, -4.11, -3.79, -3.58, -2.73, -0.0, 3.4, 9.1, 10.23, 9.15, 9.72, 6.26, 5.06, 6.2, 9.31, 13.46, 15.13, 14.13, 12.78, 12.16, 9.52, 2.4, -1.58, -2.23, 0.0, 0.45, 0.63, 1.86, 2.4, 0.63, -0.45, -0.63, 0.0, -0.63, -1.7, -1.7, 7.6, 7.15, 6.71, 6.71, 6.71, 6.26, 6.26, 6.26, 6.26, 6.23, 6.68, 6.68, 7.13, 7.58, 8.03, 8.47, 8.92, 8.92, 9.37, 8.92, 8.92, 8.87, 9.32, 8.87, 6.71, 4.02, 3.58, 4.44, 4.88, 4.43, 3.58, 2.68, 2.4, 2.4, 2.6, 1.79, 3.58, 4.77, 3.82, 1.4, 1.2, 1.2, 1.2, -0.0, -0.0, -0.0, -0.0, -0.0, -0.0, -0.0, -2.24, -2.24, -1.58, -1.9, -1.9, -1.58, -0.0, 1.2, 1.6, 1.8, -0.0, -0.0, -2.48, -3.48, -4.09, -3.22, -3.22, -1.4, 3.2, 9.76, 12.47, 10.28, 8.94, 7.47, 6.39, 6.68, 9.3, 13.1, 15.03, 14.64, 13.04, 12.08, 11.99, 3.07, -0.89, -2.24, -1.7, -1.34, -0.32, 0.63, 1.9, 2.4, 1.34, 0.4, 0.63, 0.63, 0.0, 0.0, 7.15, 7.15, 6.71, 6.71, 6.71, 6.26, 6.26, 6.26, 6.26, 6.23, 6.68, 6.68, 7.13, 7.58, 7.58, 7.11, 8.03, 8.92, 8.92, 8.94, 8.94, 8.92, 8.86, 8.91, 7.15, 4.02, 2.6, 3.95, 4.38, 4.3, 3.97, 3.13, 2.68, 2.6, 2.4, 3.07, 3.58, 3.98, 4.15, 4.24, 2.6, 2.97, 2.8, 1.9, -0.0, -0.0, -0.0, -0.0, -0.0, -0.0, -0.0, -0.0, -1.2, -1.9, -1.58, -0.0, -0.0, -0.0, 1.2, 1.4, -0.0, -0.0, -1.13, -1.49, -3.16, -3.22, -3.2, -0.89, 2.98, 7.5, 10.28, 11.84, 13.21, 11.86, 9.72, 7.6, 8.46, 11.18, 13.84, 14.11, 11.86, 11.84, 10.93, 7.94, 3.13, 0.0, -0.63, 0.6, -0.0, 0.45, 1.26, 2.4, 2.24, 1.2, 0.63, 1.34, 1.7, 1.7, 7.13, 7.13, 6.71, 6.71, 6.71, 6.26, 6.26, 6.23, 6.23, 6.23, 6.68, 6.68, 7.13, 7.58, 7.58, 8.03, 8.47, 8.47, 7.15, 6.26, 6.71, 8.03, 7.97, 7.45, 7.6, 5.31, 4.15, 4.3, 4.77, 4.6, 4.3, 3.39, 3.13, 2.68, 2.6, 2.91, 3.07, 3.58, 4.02, 4.43, 4.44, 4.43, 4.02, 3.07, 2.12, 1.58, -0.0, -0.0, -0.0, -0.0, -0.0, -0.0, -0.0, -0.0, -0.0, -0.0, -0.0, 0.63, -0.0, -0.0, -0.0, -0.0, -1.6, -2.48, -2.41, -3.2, -1.34, 0.0, 3.6, 6.51, 8.94, 11.6, 14.29, 14.75, 13.49, 10.48, 8.93, 9.27, 12.14, 12.05, 11.62, 11.62, 10.73, 8.46, 4.02, 1.79, 0.63, 1.0, 1.86, 1.7, 1.34, 2.68, 3.13, 2.24, 0.89, 1.34, 2.24, 2.24, 7.13, 6.68, 6.68, 6.71, 6.71, 6.26, 6.23, 6.23, 6.23, 6.23, 6.68, 6.68, 7.13, 7.13, 7.58, 8.03, 8.47, 8.47, 8.47, 7.11, 6.66, 7.58, 7.97, 8.42, 8.87, 8.49, 7.58, 6.14, 5.24, 5.24, 4.6, 4.11, 3.98, 3.58, 3.07, 3.07, 3.07, 3.58, 4.02, 4.47, 4.92, 4.92, 4.92, 4.44, 3.53, 3.2, 1.9, 1.9, 1.58, 1.2, -0.0, -0.0, -0.0, -0.0, -0.0, -0.0, 0.6, 0.6, 1.34, 1.34, -0.0, -1.13, -1.27, -2.53, -1.9, -2.0, -1.34, 1.34, 4.02, 5.81, 7.56, 10.02, 12.62, 12.52, 10.15, 8.53, 7.77, 8.56, 8.53, 9.27, 10.49, 10.73, 10.7, 8.71, 6.79, 3.32, 1.86, 2.21, 3.6, 3.53, 3.07, 3.39, 4.41, 3.58, 1.79, 1.34, 2.24, 2.24, 7.13, 6.68, 6.68, 6.68, 6.68, 6.23, 6.23, 6.23, 6.23, 6.23, 6.68, 6.68, 6.68, 7.13, 7.58, 8.03, 8.03, 8.47, 8.92, 8.87, 8.92, 8.92, 8.47, 8.87, 9.32, 9.82, 9.39, 7.6, 6.26, 4.89, 4.77, 5.09, 4.77, 4.47, 3.58, 3.09, 3.07, 3.13, 4.02, 4.47, 4.92, 4.92, 4.92, 4.88, 4.44, 3.87, 3.82, 2.4, 1.9, 2.21, 1.4, -0.0, -0.0, -0.0, -0.0, -0.0, -0.0, 0.54, -0.0, -2.24, -0.99, -0.65, -0.87, -1.0, -1.0, -0.95, -0.89, 0.45, 1.9, 2.73, 3.68, 5.45, 9.48, 7.69, 0.0, 2.76, 5.02, 5.52, 5.68, 6.44, 7.69, 8.24, 8.94, 8.91, 9.08, 7.6, 4.4, 4.0, 6.11, 5.81, 4.3, 3.6, 3.82, 3.58, 2.68, 2.17, 3.07, 3.07, 7.13, 7.13, 6.68, 6.23, 6.23, 6.23, 6.23, 6.23, 6.23, 6.23, 6.68, 6.68, 6.68, 7.06, 7.51, 7.58, 8.03, 8.47, 8.47, 8.92, 8.92, 8.92, 8.92, 9.37, 9.37, 9.82, 9.83, 9.39, 8.05, 6.26, 4.88, 4.8, 5.24, 4.89, 4.47, 3.58, 3.58, 3.58, 3.58, 4.47, 4.92, 5.36, 5.33, 5.33, 4.88, 4.34, 4.77, 3.58, 2.4, 2.8, 2.21, 1.4, 1.4, 1.4, 1.6, 1.6, -0.0, 0.81, 0.57, -0.63, -1.26, -0.76, -0.0, -0.0, -0.95, -0.0, 0.45, -0.89, -0.99, -1.6, -1.07, 1.2, 11.99, 4.8, -3.35, 0.0, 2.06, 3.61, 4.15, 4.23, 4.8, 5.46, 5.77, 7.15, 8.63, 9.33, 8.82, 7.71, 7.92, 8.36, 3.98, 1.9, 2.4, 2.68, 2.68, 3.07, 4.02, 4.02, 7.13, 7.13, 6.68, 6.68, 6.23, 6.23, 6.23, 6.23, 6.23, 6.23, 6.68, 6.68, 6.61, 7.06, 7.07, 7.51, 8.03, 8.03, 8.47, 8.47, 8.92, 8.94, 8.94, 9.39, 9.37, 9.83, 9.83, 9.83, 9.39, 8.49, 6.71, 5.34, 5.24, 5.24, 4.8, 4.44, 4.02, 3.58, 4.02, 4.47, 4.92, 5.36, 5.81, 5.34, 5.33, 4.88, 5.26, 4.34, 3.82, 3.82, 3.82, 3.39, 2.53, 2.53, 2.84, 1.41, 0.88, 1.7, 3.22, 0.63, -0.95, -0.85, -0.0, -0.0, -0.0, -0.0, 0.89, -0.0, -0.87, -2.4, -1.7, 8.87, 13.53, 14.17, 8.0, 1.2, 0.0, 2.17, 2.13, 2.15, 2.76, 3.47, 4.12, 5.44, 7.11, 8.05, 8.49, 8.05, 7.12, 7.21, 4.43, 2.24, 1.26, 1.6, 2.24, 3.13, 3.58, 3.58, 6.61, 6.61, 6.68, 6.68, 6.23, 6.23, 6.23, 6.23, 6.23, 6.23, 6.68, 6.61, 6.61, 7.06, 7.07, 7.51, 7.52, 8.03, 8.03, 8.47, 8.47, 8.94, 8.94, 8.94, 9.39, 9.39, 9.39, 9.83, 9.83, 9.39, 8.49, 7.15, 5.78, 5.09, 5.09, 5.09, 4.88, 4.44, 4.47, 4.47, 4.92, 5.36, 5.36, 5.81, 5.78, 5.33, 5.33, 5.24, 5.24, 5.24, 4.6, 4.4, 3.82, 3.82, 2.84, 2.23, 1.19, 2.53, 4.43, 3.48, -0.0, -0.0, -0.0, -0.0, -0.0, 1.2, 1.98, 1.55, -0.0, -0.0, 3.58, 6.98, 10.7, 13.1, 15.67, 10.8, 2.91, 0.66, 2.09, 1.52, 1.43, 1.44, 2.8, 4.43, 5.43, 5.44, 6.11, 5.81, 4.02, 4.0, 6.64, 6.54, 3.58, 1.86, 1.26, 1.7, 2.68, 2.68, 6.61, 6.61, 6.61, 6.6, 6.6, 6.6, 6.23, 6.23, 6.16, 6.16, 6.6, 6.61, 6.61, 7.06, 7.06, 7.51, 7.51, 7.97, 8.03, 8.03, 8.47, 8.47, 8.49, 8.94, 9.39, 9.39, 9.39, 9.39, 9.39, 9.83, 9.39, 8.94, 7.6, 5.7, 5.09, 4.9, 5.09, 5.33, 4.92, 4.92, 4.92, 5.36, 5.36, 5.81, 5.78, 5.78, 5.78, 5.7, 5.7, 5.24, 5.09, 4.8, 4.8, 4.77, 3.72, 2.84, 2.48, 2.73, 3.76, 2.26, 2.12, 0.87, 0.65, -0.0, 0.65, 1.66, 2.29, 1.63, 1.41, 2.29, 4.11, 6.8, 8.55, 10.53, 13.15, 15.75, 9.78, 1.2, 0.0, 0.0, 0.0, 0.69, 1.32, 2.66, 3.16, 4.0, 4.73, 4.43, 3.58, 2.91, 3.82, 9.34, 8.97, 3.13, 0.0, 0.0, 1.34, 1.34, 6.61, 6.61, 6.61, 6.61, 6.6, 6.6, 6.16, 6.16, 6.16, 6.16, 6.6, 6.61, 6.61, 7.06, 7.06, 7.07, 7.51, 7.51, 7.97, 8.03, 8.03, 8.47, 8.47, 8.94, 8.94, 9.39, 9.39, 9.39, 9.39, 9.39, 9.83, 9.39, 9.39, 8.94, 7.13, 5.57, 4.9, 5.57, 6.14, 6.23, 6.26, 6.26, 5.81, 5.36, 5.36, 5.78, 5.78, 6.23, 5.78, 5.24, 5.02, 4.8, 4.9, 4.6, 3.74, 2.86, 2.48, 2.48, 1.83, 1.52, 3.68, 3.72, 2.23, 0.79, 1.14, 1.55, 1.6, 0.88, 1.6, 3.22, 4.54, 5.75, 6.94, 8.63, 9.92, 12.52, 14.36, 3.98, -0.65, 0.0, 0.0, 0.0, 0.0, 0.63, 1.8, 3.16, 4.52, 4.3, 3.58, 2.63, 3.07, 4.88, 9.83, 6.55, 2.24, 0.45, 1.34, 1.34, 6.61, 6.61, 6.61, 6.61, 6.61, 6.6, 6.6, 6.16, 6.16, 6.16, 6.6, 6.61, 6.61, 7.06, 7.06, 7.07, 7.51, 7.51, 7.97, 7.97, 8.03, 8.03, 8.47, 8.47, 8.94, 8.94, 9.39, 9.39, 9.39, 8.94, 9.39, 9.37, 9.39, 9.39, 8.47, 7.06, 5.57, 5.51, 5.7, 6.23, 6.71, 7.15, 6.71, 6.26, 5.36, 5.36, 5.81, 5.78, 5.78, 5.24, 5.02, 4.8, 4.9, 5.09, 4.6, 3.74, 3.72, 3.16, 1.49, 2.4, 4.11, 4.8, 1.49, -0.0, 0.76, 2.16, -0.0, -0.0, -0.0, 2.53, 4.22, 5.09, 5.36, 6.26, 8.63, 11.84, 15.57, 12.3, 2.17, 0.0, 0.57, 1.7, 1.14, 0.66, 1.35, 2.66, 3.16, 2.91, 3.13, 2.68, 2.68, 3.58, 8.82, 8.48, 6.13, 3.82, 3.07, 3.07, 6.61, 6.61, 6.61, 6.61, 6.61, 6.68, 6.68, 6.68, 6.6, 6.16, 6.6, 6.61, 6.61, 6.61, 7.06, 7.06, 7.07, 7.51, 7.51, 7.97, 8.03, 8.03, 8.03, 8.47, 8.47, 8.49, 8.94, 8.94, 8.94, 8.94, 8.94, 9.37, 9.37, 9.37, 8.94, 8.03, 6.47, 5.57, 5.57, 6.16, 6.68, 7.6, 7.6, 6.71, 5.81, 5.36, 5.81, 5.36, 5.33, 5.24, 4.9, 5.31, 5.31, 5.51, 5.02, 4.52, 4.8, 3.48, 1.49, 3.16, 5.75, 4.19, -0.0, -0.0, 1.55, 1.66, 0.76, -0.0, -0.63, 0.0, 4.15, 6.28, 3.58, 3.74, 7.03, 11.62, 13.49, 14.3, 11.98, 4.02, 1.86, 3.12, 3.15, 2.48, 0.61, 0.61, 0.65, 1.24, 1.86, 2.17, 2.68, 3.32, 5.86, 7.73, 7.46, 6.9, 6.4, 6.4, 6.51, 6.51, 6.61, 6.61, 6.61, 6.68, 6.68, 6.68, 6.68, 6.61, 6.6, 6.61, 6.61, 6.61, 7.06, 7.06, 7.07, 7.51, 7.51, 7.51, 8.03, 8.03, 8.03, 8.03, 8.47, 8.47, 8.49, 8.94, 8.94, 8.94, 8.94, 8.94, 9.37, 9.37, 8.92, 8.47, 7.07, 5.99, 5.57, 6.14, 6.61, 7.58, 7.58, 7.58, 7.13, 6.66, 5.36, 4.89, 5.24, 5.31, 5.31, 5.81, 5.81, 5.81, 5.57, 5.09, 4.8, 4.0, 2.21, 2.86, 4.84, 2.6, -0.0, -0.0, 1.8, -0.0, -0.0, 0.87, -0.0, -0.45, 2.6, 6.44, 7.98, 8.05, 8.3, 9.92, 11.44, 10.95, 13.41, 14.29, 10.26, 7.87, 6.79, 6.0, 4.52, 1.58, 0.99, 0.95, 1.7, 2.24, 2.8, 4.46, 7.32, 8.24, 8.0, 7.85, 7.85, 7.85, 6.51, 6.51, 6.61, 6.61, 6.61, 6.61, 6.61, 6.68, 6.61, 6.61, 6.61, 6.61, 6.61, 6.61, 6.61, 7.06, 7.06, 7.07, 7.51, 7.51, 7.51, 7.52, 7.97, 8.03, 8.03, 8.03, 8.47, 8.49, 8.49, 8.49, 8.94, 8.94, 8.94, 8.92, 8.92, 8.49, 7.58, 6.6, 5.57, 5.57, 6.6, 7.07, 7.58, 7.58, 7.58, 7.56, 6.66, 6.16, 6.47, 5.81, 5.81, 5.81, 6.3, 6.3, 6.3, 5.88, 5.31, 4.55, 4.37, 4.46, 4.11, 1.6, -0.0, 1.74, -0.0, -1.55, -0.83, 2.21, 4.19, 2.53, 1.2, 4.84, 9.33, 12.09, 12.52, 9.84, 7.64, 7.02, 8.24, 13.77, 16.08, 12.66, 9.63, 8.77, 8.94, 8.49, 8.03, 4.88, 5.64, 5.44, 5.09, 5.38, 6.35, 8.11, 8.66, 8.11, 7.85, 7.85, 6.51, 6.51, 6.51, 6.61, 6.61, 6.61, 7.06, 7.06, 7.06, 7.06, 6.51, 6.51, 6.51, 6.51, 6.51, 6.94, 7.06, 7.06, 7.07, 7.51, 7.51, 7.51, 7.97, 7.97, 8.03, 8.03, 8.03, 8.03, 8.05, 7.6, 8.05, 8.49, 8.94, 8.94, 8.94, 8.49, 8.05, 7.13, 6.16, 5.7, 6.16, 6.61, 7.51, 7.51, 7.58, 8.03, 7.97, 7.87, 7.4, 6.94, 6.04, 5.99, 6.04, 6.47, 6.79, 6.79, 6.3, 5.31, 4.8, 4.37, 3.72, 1.55, 1.0, 1.58, -0.0, -1.66, -1.55, 1.19, 5.06, 6.13, 2.54, 4.47, 7.15, 11.13, 15.13, 10.73, 1.4, 0.0, 3.79, 9.14, 14.93, 13.34, 7.15, 6.68, 8.42, 10.58, 11.24, 11.71, 9.83, 7.73, 5.72, 4.43, 4.75, 7.28, 9.05, 8.4, 7.85, 7.85, 6.51, 6.51, 6.51, 6.51, 6.61, 7.06, 7.06, 6.94, 6.94, 6.94, 6.79, 6.79, 6.79, 6.72, 6.3, 6.3, 6.51, 6.3, 6.51, 7.06, 7.51, 7.51, 7.51, 7.97, 7.97, 8.03, 8.03, 8.03, 8.03, 6.71, 7.6, 8.05, 8.49, 8.94, 8.94, 8.49, 8.05, 7.6, 6.6, 6.14, 6.14, 6.16, 7.13, 7.58, 7.58, 7.58, 8.03, 7.97, 7.4, 6.94, 6.47, 5.99, 5.99, 6.47, 6.47, 6.94, 6.94, 5.99, 5.09, 4.37, 3.49, 1.6, 3.16, 1.74, -0.0, -0.0, -0.0, 0.85, 4.4, 6.36, 5.31, 4.47, 5.36, 8.36, 15.13, 14.68, 1.34, -2.2, 0.61, 6.32, 11.3, 10.19, 3.45, 1.61, 6.23, 9.68, 11.94, 12.3, 10.45, 6.4, 3.79, 3.07, 3.78, 6.0, 7.73, 8.55, 7.73, 7.73, 6.51, 6.51, 6.51, 6.51, 6.94, 6.94, 6.94, 6.94, 7.37, 7.21, 7.21, 6.6, 6.6, 6.51, 6.51, 6.1, 5.75, 5.6, 6.3, 6.47, 6.94, 7.51, 7.51, 7.51, 7.52, 8.03, 8.03, 8.03, 8.03, 8.03, 8.05, 8.05, 8.49, 8.49, 8.49, 8.49, 8.49, 7.6, 7.13, 6.16, 5.7, 6.23, 6.68, 7.13, 7.13, 7.58, 7.58, 8.03, 7.51, 7.4, 6.47, 6.04, 5.99, 6.04, 6.47, 6.47, 6.94, 6.6, 5.51, 4.4, 3.49, 3.22, 2.73, 1.19, -0.0, 0.81, 1.66, 3.22, 5.2, 6.23, 4.84, 4.09, 4.8, 7.42, 12.3, 17.22, 10.8, 0.6, 0.0, 4.87, 8.18, 4.47, 1.61, 1.84, 3.07, 8.41, 11.16, 11.11, 7.28, 3.14, 1.84, 1.4, 2.86, 4.73, 5.64, 8.06, 7.06, 7.06, 6.79, 6.79, 6.51, 6.94, 6.94, 6.94, 7.37, 7.26, 7.26, 7.26, 7.09, 7.01, 6.8, 6.67, 5.86, 5.58, 5.21, 5.08, 5.47, 5.81, 6.47, 7.06, 7.51, 7.51, 7.51, 7.51, 7.58, 7.58, 8.03, 8.03, 8.03, 8.03, 8.05, 8.49, 8.49, 8.49, 8.49, 8.05, 7.15, 6.68, 5.78, 5.78, 6.23, 6.68, 7.15, 7.15, 7.6, 7.58, 7.51, 7.07, 6.51, 6.47, 6.16, 6.14, 6.16, 6.47, 6.51, 6.6, 5.7, 4.07, 2.84, 3.76, 2.4, 1.3, 1.05, 1.08, 2.84, 4.15, 5.09, 4.43, 3.0, 3.6, 5.69, 7.47, 10.02, 13.49, 15.59, 11.75, 7.15, 5.43, 4.07, 0.89, -0.0, 1.9, 3.74, 7.37, 7.84, 3.6, 2.53, 2.53, 2.53, 2.21, 2.23, 2.8, 3.07, 3.97, 5.94, 5.94, 6.79, 6.79, 6.79, 6.79, 6.79, 7.21, 7.26, 7.26, 7.26, 7.51, 7.51, 7.31, 6.8, 6.41, 5.75, 5.21, 4.93, 4.55, 4.8, 5.31, 5.99, 6.6, 7.06, 7.51, 7.51, 7.51, 7.58, 7.58, 7.58, 8.03, 8.03, 8.03, 8.03, 8.05, 8.49, 8.49, 8.49, 8.47, 7.6, 6.71, 6.23, 5.78, 5.81, 6.26, 6.71, 7.15, 7.15, 7.6, 7.13, 7.13, 6.61, 6.6, 6.16, 6.14, 6.14, 6.16, 6.6, 6.47, 5.99, 4.65, 4.12, 3.49, 2.4, 0.87, 0.71, 2.53, 1.7, 3.9, 2.68, 0.78, 1.14, 3.15, 7.56, 8.95, 10.02, 9.54, 11.21, 13.99, 16.54, 13.39, 4.73, 0.45, -0.0, 1.7, 2.4, 2.5, 1.4, 1.16, 1.16, 1.88, 2.21, 2.5, 2.23, 2.54, 3.07, 3.97, 4.73, 4.73, 6.79, 6.79, 6.79, 6.79, 7.21, 7.26, 7.26, 7.26, 7.69, 7.51, 7.51, 7.51, 7.51, 6.28, 5.21, 5.08, 4.4, 4.27, 4.6, 5.02, 5.57, 6.16, 6.61, 7.06, 7.07, 7.51, 7.51, 7.58, 7.58, 7.58, 7.58, 8.03, 8.03, 8.03, 8.05, 8.49, 8.49, 8.47, 8.03, 7.15, 6.26, 5.78, 5.36, 5.81, 5.81, 6.71, 7.15, 7.15, 7.15, 7.15, 6.68, 6.23, 6.23, 5.78, 5.78, 6.14, 6.16, 6.47, 5.81, 5.21, 4.71, 3.49, 2.4, 0.76, 0.57, 2.84, 1.86, 2.53, 0.81, -0.0, -0.0, 3.4, 6.87, 10.16, 9.6, 8.36, 7.15, 11.18, 16.02, 17.66, 11.54, 2.17, 0.0, 0.45, 1.26, 1.61, 1.16, 1.16, 1.88, 1.88, 2.5, 2.5, 2.91, 2.6, 2.68, 3.58, 4.47, 4.87, 6.79, 6.79, 6.79, 6.79, 7.21, 7.26, 7.69, 7.69, 7.51, 7.51, 7.51, 7.74, 7.69, 6.79, 5.47, 4.55, 4.27, 3.87, 4.3, 4.77, 5.24, 6.14, 6.61, 7.06, 7.06, 7.07, 7.07, 7.13, 7.58, 7.58, 7.58, 7.58, 8.03, 8.03, 8.03, 8.49, 8.49, 8.47, 8.47, 7.58, 6.71, 5.81, 5.36, 4.92, 5.81, 6.71, 7.15, 7.15, 7.15, 6.71, 6.71, 6.26, 5.78, 5.78, 5.78, 5.7, 6.14, 6.04, 6.1, 5.75, 5.29, 4.71, 3.49, 0.71, 0.57, 2.23, 3.48, 1.83, -0.0, -0.0, -0.0, 2.49, 6.01, 10.04, 11.44, 10.01, 6.21, 8.55, 11.8, 12.89, 9.81, 3.53, 0.89, 0.45, -0.0, 1.0, 1.2, 1.2, 1.61, 2.15, 2.4, 2.63, 3.07, 2.68, 3.13, 3.58, 4.02, 4.47, 6.79, 6.79, 6.79, 6.79, 7.26, 7.69, 7.69, 7.69, 7.69, 7.69, 8.17, 8.17, 8.3, 7.87, 6.79, 5.31, 3.7, 3.53, 3.98, 4.44, 5.24, 5.7, 6.6, 7.06, 7.06, 7.06, 7.06, 7.13, 7.13, 7.58, 7.58, 7.58, 7.58, 7.58, 8.03, 8.03, 8.49, 8.47, 8.47, 7.97, 7.13, 5.81, 5.36, 4.92, 5.36, 6.26, 7.13, 7.13, 6.68, 6.71, 6.26, 5.81, 5.78, 5.78, 5.78, 5.7, 5.7, 6.3, 6.1, 5.75, 5.58, 5.29, 4.07, 2.48, 1.13, 1.27, 1.8, 0.81, -0.0, -0.0, -0.0, 1.7, 5.06, 7.81, 11.17, 12.16, 11.44, 8.91, 7.45, 4.52, 2.15, 0.63, 0.0, 0.45, -0.0, 0.6, 0.99, 1.58, 2.4, 2.6, 2.68, 3.13, 3.09, 3.07, 2.8, 2.8, 2.8, 4.02, 6.6, 6.6, 6.79, 7.21, 7.26, 7.69, 7.69, 7.74, 7.74, 8.17, 8.3, 8.33, 8.77, 8.79, 8.87, 8.03, 5.81, 3.98, 4.02, 4.88, 5.24, 5.7, 6.16, 6.6, 6.61, 7.13, 7.13, 7.13, 7.13, 7.13, 7.58, 7.58, 7.58, 7.58, 7.58, 8.03, 8.47, 8.47, 8.47, 8.41, 7.58, 6.26, 5.36, 5.36, 5.34, 5.81, 6.71, 6.68, 6.71, 6.71, 6.26, 5.81, 5.78, 5.78, 5.78, 5.7, 5.7, 6.47, 6.3, 6.0, 5.75, 5.58, 5.24, 2.48, 1.27, 1.27, 1.6, -0.0, -0.0, -0.0, 0.88, 2.4, 3.76, 5.03, 6.98, 11.38, 14.37, 15.75, 11.88, 4.93, 0.45, -0.6, -0.57, -0.63, 0.45, -0.0, 0.63, 1.7, 2.68, 3.13, 2.91, 3.07, 3.07, 2.86, 2.6, 1.86, 1.26, 1.26, 6.6, 6.6, 7.01, 7.21, 7.26, 7.69, 7.69, 7.74, 7.87, 8.3, 8.33, 8.77, 8.87, 9.32, 9.32, 8.94, 7.97, 6.47, 4.8, 5.33, 5.26, 5.7, 6.14, 6.16, 6.6, 6.68, 7.13, 7.13, 7.13, 7.13, 7.13, 7.58, 7.58, 7.58, 7.58, 7.58, 8.03, 8.47, 8.47, 8.42, 7.97, 6.68, 5.81, 5.36, 5.78, 6.23, 6.68, 6.71, 6.71, 6.71, 6.26, 6.26, 6.26, 5.78, 5.78, 5.7, 6.16, 6.04, 5.81, 5.6, 5.75, 5.75, 5.21, 3.79, 1.41, 1.19, -0.0, -0.0, -0.0, -0.0, 0.73, 1.83, 2.6, 3.33, 4.46, 7.9, 12.52, 16.37, 16.71, 14.11, 10.47, 6.32, 1.34, -1.26, -1.34, 0.45, 0.89, 1.79, 3.07, 3.39, 3.07, 3.07, 2.5, 1.86, 1.2, 0.89, 0.89, 0.89, 7.01, 7.01, 7.01, 7.01, 7.26, 7.26, 7.69, 7.69, 7.87, 7.87, 8.33, 8.42, 8.86, 8.87, 8.92, 8.94, 8.47, 7.51, 6.68, 5.78, 5.78, 6.14, 6.16, 6.16, 6.16, 6.68, 7.13, 7.13, 7.13, 7.13, 7.13, 7.58, 7.58, 7.58, 7.58, 7.58, 8.03, 8.47, 8.47, 8.42, 7.97, 7.51, 6.26, 5.81, 5.34, 5.78, 6.23, 6.68, 6.68, 6.68, 6.71, 6.26, 6.26, 6.26, 6.26, 6.23, 6.16, 5.99, 5.31, 5.08, 5.6, 5.75, 4.94, 3.49, 1.19, -0.0, -0.0, -0.0, -0.0, -0.0, 0.79, 1.66, 2.4, 3.47, 5.15, 7.03, 10.55, 13.04, 14.13, 13.41, 13.59, 15.92, 11.37, 0.89, -2.24, -0.45, 0.89, 2.6, 2.91, 2.91, 2.4, 1.7, 1.34, 0.45, -0.0, -0.0, -0.0, -0.0, 7.01, 7.01, 7.01, 7.01, 7.09, 7.26, 7.26, 7.26, 7.69, 7.87, 8.3, 8.42, 8.42, 8.47, 8.47, 8.49, 8.05, 7.58, 7.15, 6.26, 6.23, 6.23, 6.23, 6.23, 6.23, 6.68, 6.68, 7.13, 7.13, 7.13, 7.13, 7.13, 7.58, 7.58, 7.51, 7.51, 7.52, 8.03, 8.47, 8.42, 8.41, 7.97, 6.68, 6.26, 5.81, 5.78, 5.78, 6.16, 6.6, 6.61, 6.68, 6.23, 6.23, 6.26, 6.26, 6.23, 5.7, 5.09, 5.09, 4.9, 5.47, 6.0, 5.21, 2.84, 1.14, 1.19, 1.08, -0.0, -0.0, -0.0, 1.19, 1.66, 2.3, 4.19, 5.2, 6.51, 8.14, 10.15, 9.92, 10.12, 11.62, 15.29, 17.44, 7.46, -1.34, -1.2, 0.89, 1.79, 1.34, 0.89, 1.34, -0.0, -0.0, -0.0, -0.6, -0.6, -0.6, -0.6, 7.01, 7.01, 7.01, 7.01, 7.09, 7.26, 7.26, 7.26, 7.26, 7.84, 7.87, 7.97, 8.42, 8.47, 8.03, 8.05, 7.6, 7.6, 7.6, 7.15, 6.68, 6.68, 6.68, 6.68, 6.68, 6.68, 6.68, 6.68, 7.13, 7.13, 7.13, 7.51, 7.51, 7.51, 7.51, 7.51, 7.51, 7.97, 8.03, 8.47, 8.42, 7.97, 7.51, 6.68, 5.81, 5.36, 5.81, 5.78, 6.23, 6.23, 6.23, 6.23, 6.23, 5.78, 5.81, 5.34, 5.24, 5.24, 4.6, 5.02, 5.31, 5.47, 4.65, 2.84, 1.16, 1.19, 1.41, 0.71, 0.54, 0.65, 1.49, 2.68, 3.22, 4.57, 4.66, 5.09, 5.82, 7.06, 7.97, 7.82, 10.34, 15.12, 17.9, 12.39, 1.26, -1.34, 0.45, -0.63, -1.26, -1.9, -2.21, -1.26, -1.26, -1.6, -1.6, -1.7, -1.7, -1.7, 7.01, 7.01, 7.01, 7.01, 7.01, 7.26, 7.26, 7.26, 7.26, 7.26, 7.84, 7.87, 7.97, 7.97, 8.03, 8.03, 7.58, 7.58, 7.58, 7.13, 7.13, 7.13, 7.13, 7.13, 6.68, 6.68, 6.68, 6.68, 7.13, 7.13, 7.58, 7.51, 7.51, 7.51, 7.51, 7.51, 7.51, 7.51, 7.97, 8.03, 8.41, 8.41, 7.97, 7.13, 5.81, 5.36, 5.36, 5.81, 5.78, 6.23, 6.23, 6.23, 5.78, 5.36, 4.89, 4.8, 4.77, 4.77, 4.77, 5.02, 5.31, 5.08, 4.07, 2.4, 1.73, 1.19, 1.27, 1.27, 1.27, 1.74, 1.6, 2.53, 3.6, 3.58, 2.68, 2.4, 3.2, 5.49, 6.24, 5.86, 8.53, 13.51, 17.32, 14.3, 3.16, -1.7, -2.17, -2.63, -2.91, -2.15, -2.4, -2.4, -2.4, -2.17, -2.17, -2.17, -2.17, -2.17, 7.01, 7.01, 7.01, 7.01, 7.01, 7.01, 7.26, 7.26, 7.26, 7.26, 7.26, 7.4, 7.84, 7.97, 7.52, 7.58, 7.58, 7.58, 7.58, 7.58, 7.58, 7.13, 7.13, 7.13, 7.13, 7.15, 7.13, 6.68, 7.13, 7.13, 7.58, 7.51, 7.51, 7.51, 7.51, 7.51, 7.51, 7.51, 7.97, 7.97, 7.97, 8.41, 7.87, 7.51, 6.68, 5.81, 5.36, 5.36, 5.36, 5.81, 5.81, 5.81, 5.36, 4.92, 4.88, 4.77, 4.77, 4.77, 4.77, 5.02, 5.31, 4.93, 3.79, 2.2, 1.76, 2.2, 1.41, 1.27, 1.4, 0.95, 0.63, 2.6, 2.41, 0.81, -0.0, 0.79, 2.4, 4.12, 5.38, 5.94, 7.64, 10.9, 14.08, 15.58, 8.49, -1.7, -3.82, -3.58, -2.68, -2.5, -2.5, -2.4, -2.4, -2.17, -2.17, -1.7, -1.7, -1.7, 7.01, 7.01, 7.01, 7.01, 7.01, 7.01, 7.26, 7.26, 7.26, 7.26, 7.26, 7.4, 7.4, 7.4, 7.51, 7.51, 7.51, 7.51, 7.51, 7.51, 7.51, 7.13, 7.13, 7.13, 7.13, 7.13, 7.13, 7.13, 7.06, 7.07, 7.51, 7.51, 7.51, 7.51, 7.51, 7.51, 7.51, 7.51, 7.51, 7.97, 7.97, 7.97, 7.87, 7.97, 7.13, 6.26, 5.81, 5.36, 5.36, 5.36, 5.33, 4.92, 4.92, 4.92, 4.77, 4.8, 4.8, 4.77, 5.02, 5.09, 4.9, 4.55, 3.48, 2.44, 1.76, 1.6, 1.6, 0.71, 1.26, 1.2, 0.8, -0.99, -0.0, -0.78, -0.0, 0.83, 1.63, 3.2, 4.71, 6.24, 7.27, 7.9, 9.7, 13.35, 14.31, 2.6, -3.13, -2.6, -1.58, -1.58, -1.58, -1.86, -2.12, -2.12, -1.79, -1.34, -1.34, -1.34, 7.01, 7.01, 7.01, 7.01, 7.01, 7.01, 7.26, 7.26, 7.26, 7.26, 7.26, 7.4, 7.4, 7.4, 7.51, 7.51, 7.51, 7.51, 7.51, 7.51, 7.51, 7.58, 7.13, 7.13, 7.13, 7.13, 7.58, 7.13, 7.06, 7.06, 7.07, 7.51, 7.51, 7.51, 7.51, 7.51, 7.51, 7.51, 7.51, 7.97, 7.97, 7.97, 7.87, 7.97, 7.51, 6.68, 6.23, 5.81, 5.36, 5.36, 5.33, 4.89, 4.92, 5.24, 5.24, 5.24, 5.24, 5.24, 5.09, 5.09, 4.8, 4.0, 2.86, 2.48, 2.23, 1.6, 1.6, 1.49, 2.53, 1.98, 0.99, -0.0, -1.6, -1.72, -0.82, -0.0, 1.6, 2.47, 3.79, 5.59, 6.53, 7.27, 7.18, 10.91, 16.55, 0.4, -2.0, -0.6, -0.0, 0.63, -0.0, -0.95, -1.2, -1.34, -1.34, -0.89, -0.89, -0.89, 7.01, 7.01, 7.01, 7.01, 7.01, 7.09, 7.26, 7.26, 7.26, 7.26, 7.26, 7.4, 7.4, 7.4, 7.4, 7.51, 7.51, 7.51, 7.51, 7.51, 7.51, 7.51, 7.13, 7.13, 7.06, 7.07, 7.51, 7.07, 7.13, 7.06, 7.07, 7.51, 7.51, 7.51, 7.51, 7.51, 7.51, 7.51, 7.51, 7.97, 7.97, 7.97, 7.87, 7.95, 7.51, 7.13, 6.68, 6.26, 6.26, 5.78, 5.78, 5.78, 5.81, 6.14, 5.99, 5.7, 5.24, 5.24, 5.24, 5.09, 4.6, 4.27, 3.16, 2.84, 2.51, 1.84, 1.74, 2.41, 2.3, 0.81, 0.73, -0.0, -0.61, -0.76, -1.66, -0.0, 0.88, 1.47, 3.11, 4.56, 5.89, 6.64, 8.06, 10.68, 15.63, 2.91, -0.54, -0.0, 0.89, 1.7, 0.95, 0.45, -0.89, -0.89, -0.32, -0.0, -0.0, -0.0, 7.01, 7.01, 7.01, 7.01, 7.09, 7.09, 7.26, 7.26, 7.26, 7.26, 7.26, 7.4, 6.94, 6.94, 6.94, 6.97, 6.97, 6.97, 7.06, 7.07, 7.07, 7.51, 7.51, 7.07, 7.07, 7.07, 7.07, 7.06, 7.06, 7.06, 7.51, 7.51, 7.51, 7.51, 7.51, 7.51, 7.51, 7.51, 7.51, 7.51, 7.97, 7.97, 7.87, 7.51, 7.51, 7.13, 7.13, 6.71, 6.71, 6.71, 6.71, 6.71, 6.71, 6.6, 6.16, 5.78, 5.33, 4.89, 4.8, 4.77, 4.6, 3.72, 2.84, 2.84, 2.51, 1.84, 1.4, 1.49, 0.81, -0.0, -0.0, -0.0, -0.0, -0.81, -0.79, -0.0, -0.0, 0.73, 2.2, 3.9, 4.95, 6.32, 8.06, 18.63, 11.09, -0.0, -1.61, -0.0, 0.32, 0.71, 0.0, 0.0, 0.0, -0.0, 0.4, 0.8, 0.8, 0.8, 7.01, 7.01, 7.01, 7.01, 7.09, 7.09, 7.26, 7.26, 7.26, 7.26, 7.26, 7.4, 6.94, 6.94, 6.94, 6.94, 6.94, 6.94, 7.06, 7.06, 7.06, 7.07, 7.07, 7.07, 7.07, 7.07, 7.06, 7.06, 7.06, 7.07, 7.51, 7.51, 7.51, 7.51, 7.51, 7.51, 7.51, 7.51, 7.51, 7.51, 7.97, 7.97, 7.87, 7.51, 7.51, 7.13, 6.71, 6.71, 7.15, 7.15, 7.15, 7.15, 7.06, 6.61, 6.23, 5.81, 5.36, 4.88, 4.77, 4.77, 4.11, 3.35, 3.14, 2.79, 2.53, 1.84, 1.84, 0.57, -0.0, -0.88, -1.66, -1.8, -0.98, -0.79, -1.6, -0.7, -0.73, 0.73, 3.11, 4.01, 3.9, 6.01, 12.7, 17.9, 9.7, -1.58, -3.07, -2.5, -2.17, -2.63, -2.17, -0.45, 0.63, 0.8, 1.24, 1.2, 1.2, 1.2, 7.01, 7.01, 7.01, 7.01, 7.09, 7.09, 7.09, 7.26, 7.26, 7.26, 7.21, 7.37, 6.94, 6.94, 6.94, 6.94, 6.94, 6.94, 6.94, 6.94, 6.94, 6.94, 7.06, 7.07, 7.07, 7.06, 7.06, 7.06, 7.07, 7.07, 7.07, 7.07, 7.07, 7.07, 7.51, 7.51, 7.51, 7.51, 7.51, 7.51, 7.51, 7.97, 7.97, 7.51, 7.07, 7.13, 6.71, 6.71, 6.71, 7.15, 7.15, 7.15, 6.68, 6.68, 6.26, 5.81, 4.92, 4.88, 4.77, 4.77, 4.11, 3.35, 2.79, 3.07, 2.53, 1.88, 1.33, 0.66, -0.0, -1.8, -2.84, -2.21, -1.49, -1.74, -1.49, -2.86, -1.49, -0.0, 2.6, 3.47, 4.01, 5.06, 10.28, 15.67, 14.49, 1.2, -3.53, -3.32, -3.82, -3.98, -3.07, -0.57, 0.54, 1.2, 1.16, 1.33, 1.33, 1.33, 7.01, 7.01, 7.01, 7.01, 7.01, 7.09, 7.09, 7.26, 7.21, 7.21, 7.21, 7.21, 6.94, 6.94, 6.94, 6.94, 6.94, 6.94, 6.94, 6.94, 6.94, 6.94, 6.94, 7.06, 7.06, 7.06, 7.06, 7.06, 6.94, 6.94, 7.06, 7.06, 7.07, 7.07, 7.07, 7.07, 7.07, 7.51, 7.51, 7.51, 7.51, 7.51, 7.97, 7.51, 7.51, 7.13, 6.68, 6.71, 6.71, 6.71, 6.71, 6.71, 6.71, 6.71, 6.26, 5.81, 4.92, 4.88, 4.77, 4.3, 3.6, 3.2, 3.07, 3.07, 2.5, 1.61, 1.16, 0.59, -0.59, -1.24, -1.6, -1.9, -1.9, -1.26, -1.49, -2.21, -2.23, -0.87, 1.49, 2.53, 3.35, 6.44, 9.03, 12.29, 16.02, 10.75, 0.45, -3.58, -2.91, -2.4, -1.9, -0.61, 0.59, 1.27, 1.33, 1.49, 1.49, 1.49, 7.01, 7.01, 7.01, 7.01, 7.01, 7.01, 7.01, 7.21, 7.21, 7.21, 7.21, 6.79, 6.94, 6.94, 6.94, 6.94, 6.94, 6.94, 6.94, 6.51, 6.51, 6.51, 6.94, 7.06, 7.06, 7.06, 6.94, 6.94, 6.94, 6.94, 7.06, 7.06, 7.06, 7.06, 7.06, 7.06, 7.06, 7.07, 7.07, 7.07, 7.07, 7.51, 7.51, 7.51, 7.51, 7.06, 6.68, 6.23, 6.71, 6.71, 6.71, 6.71, 6.71, 6.71, 6.26, 5.36, 4.92, 4.88, 4.88, 4.3, 3.82, 3.39, 3.32, 2.91, 2.4, 1.49, 0.65, -0.0, -0.0, -0.8, -1.6, -2.0, -1.86, -1.9, -1.49, -2.68, -2.84, -1.74, -0.0, 0.87, 3.58, 5.75, 8.14, 11.06, 15.12, 16.47, 6.26, -0.6, -1.79, -0.0, -0.0, -0.0, 0.63, 1.55, 2.0, 2.11, 2.11, 2.11, 7.01, 7.01, 7.01, 7.01, 7.01, 7.01, 7.01, 7.01, 7.21, 7.21, 6.79, 6.79, 6.94, 6.94, 6.94, 6.94, 6.94, 6.94, 6.51, 6.51, 6.51, 6.51, 6.51, 6.94, 6.94, 6.94, 6.94, 6.94, 6.94, 7.06, 7.06, 7.06, 7.06, 7.06, 7.06, 7.06, 7.06, 7.06, 7.06, 7.06, 7.06, 7.07, 7.51, 7.51, 7.51, 7.06, 6.68, 6.23, 6.26, 6.26, 6.71, 6.71, 6.71, 6.26, 5.81, 5.36, 4.92, 4.88, 4.44, 3.87, 3.39, 3.39, 3.53, 3.07, 2.4, 1.58, 0.71, -0.0, -0.0, -0.0, -1.2, -2.54, -2.23, -2.86, -1.9, -2.84, -2.98, -1.9, -1.0, 1.49, 3.2, 5.29, 7.56, 11.18, 14.3, 16.54, 13.86, 4.87, 1.2, 1.2, 1.61, 0.63, 1.3, 2.2, 2.8, 3.0, 3.0, 3.0, 7.01, 7.01, 7.01, 7.01, 7.01, 7.01, 7.01, 7.01, 7.21, 6.79, 6.79, 6.79, 6.94, 6.94, 6.94, 6.94, 6.94, 6.51, 6.51, 6.47, 6.47, 6.51, 6.51, 6.94, 6.94, 6.94, 6.94, 6.94, 6.94, 7.06, 7.06, 7.06, 7.06, 7.06, 7.06, 7.06, 7.06, 7.06, 7.06, 7.06, 7.06, 7.07, 7.51, 7.51, 7.4, 7.06, 6.68, 6.23, 6.23, 6.23, 6.23, 6.71, 6.23, 6.23, 5.81, 5.36, 4.92, 4.92, 4.44, 3.98, 3.53, 3.53, 3.09, 3.07, 2.17, 1.26, -0.0, -0.0, -0.0, -0.0, -1.24, -2.12, -2.4, -2.4, -2.4, -1.86, -2.6, -1.9, -0.0, 1.0, 2.6, 5.29, 7.6, 10.73, 14.3, 16.54, 15.2, 10.73, 5.81, 3.97, 3.14, 2.0, 1.36, 2.12, 3.47, 4.56, 4.56, 4.56, 7.01, 7.01, 7.01, 7.01, 7.01, 7.01, 7.01, 7.01, 7.21, 6.79, 6.79, 6.79, 6.94, 6.94, 6.94, 6.94, 6.94, 6.51, 6.51, 6.51, 6.47, 6.47, 6.51, 6.94, 6.94, 6.94, 6.94, 6.94, 6.94, 6.94, 7.06, 7.06, 7.06, 7.06, 7.06, 7.06, 7.06, 7.06, 7.06, 7.06, 7.06, 7.06, 7.51, 7.4, 7.4, 7.06, 6.6, 6.23, 6.23, 6.23, 6.23, 6.23, 6.23, 6.23, 5.78, 4.92, 4.92, 4.47, 3.98, 3.98, 3.53, 3.58, 3.13, 2.68, 2.12, 1.6, 0.63, -0.0, -0.0, -0.0, -0.57, -1.2, -1.6, -3.39, -2.17, -2.23, -1.26, -1.0, -0.0, 1.0, 2.97, 5.29, 7.11, 10.25, 13.84, 16.47, 15.12, 11.96, 9.15, 7.33, 4.11, 2.51, 1.47, 2.04, 3.32, 4.07, 4.07, 4.07, 7.01, 7.01, 7.01, 7.01, 7.01, 7.01, 7.01, 7.01, 6.6, 6.79, 6.79, 6.79, 6.51, 6.51, 6.51, 6.51, 6.51, 6.51, 6.94, 6.51, 6.47, 6.47, 6.51, 6.51, 6.51, 6.94, 6.94, 6.94, 6.94, 6.51, 6.51, 6.51, 6.51, 6.51, 6.61, 7.06, 7.06, 7.06, 6.94, 6.94, 7.06, 7.06, 7.51, 7.4, 6.97, 6.61, 6.6, 6.23, 6.23, 6.23, 6.23, 6.23, 6.23, 6.23, 5.34, 4.89, 4.47, 4.47, 4.02, 3.58, 3.58, 3.58, 3.13, 2.68, 2.24, 1.79, 0.89, 0.45, 0.45, -0.0, -0.0, -0.0, -0.0, -2.21, -2.6, -2.6, -1.26, -1.0, -0.0, 1.0, 2.6, 4.85, 7.11, 9.36, 12.42, 15.78, 16.05, 13.29, 11.23, 9.33, 6.0, 2.84, 1.84, 1.84, 2.23, 2.84, 2.84, 2.84, 7.01, 7.01, 7.01, 7.01, 7.01, 7.01, 7.01, 7.01, 6.6, 6.79, 6.79, 6.79, 6.51, 6.51, 6.51, 6.51, 6.51, 6.51, 6.94, 6.51, 6.47, 6.47, 6.51, 6.51, 6.51, 6.94, 6.94, 6.94, 6.94, 6.51, 6.51, 6.51, 6.51, 6.51, 6.61, 7.06, 7.06, 7.06, 6.94, 6.94, 7.06, 7.06, 7.51, 7.4, 6.97, 6.61, 6.6, 6.23, 6.23, 6.23, 6.23, 6.23, 6.23, 6.23, 5.34, 4.89, 4.47, 4.47, 4.02, 3.58, 3.58, 3.58, 3.13, 2.68, 2.24, 1.79, 0.89, 0.45, 0.45, -0.0, -0.0, -0.0, -0.0, -2.21, -2.6, -2.6, -1.9, -1.0, -0.0, 1.0, 2.6, 4.57, 6.51, 8.8, 11.4, 13.78, 15.61, 15.1, 13.23, 11.21, 8.55, 4.09, 2.21, 1.9, 2.15, 2.8, 2.8, 2.8]}, {"header": {"dx": 0.06612293990616946, "dy": 0.0552356325346848, "nx": 98, "ny": 59, "la1": 35.046912555036876, "la2": 31.78801023549047, "lo1": -121.43107172385933, "lo2": -114.95102361305473, "refTime": "2026041213", "parameterCategory": 1, "parameterNumber": 3}, "data": [0.0, 0.0, 0.0, 0.0, 0.0, 0.0, 0.0, 0.0, 0.0, 0.0, 0.0, 0.0, 0.0, 0.0, 0.0, 0.0, 0.0, 0.0, 0.0, 0.0, 0.0, 0.0, 1.55, 3.48, 3.84, 4.11, 3.07, 3.22, 3.32, 4.02, 4.02, 3.58, 3.58, 1.79, -0.0, -0.0, 0.0, 0.0, 0.45, 2.24, 3.13, 3.51, 2.54, 3.48, 2.32, 2.29, 2.26, 2.99, 3.15, 3.8, 3.91, 4.29, 4.65, 4.95, 5.3, 5.3, 5.49, 5.38, 4.5, 4.71, 3.88, 3.11, 2.6, 3.04, 3.2, 3.48, 3.11, 3.09, 3.15, 3.06, 2.23, 1.49, 0.79, 0.0, 0.0, 1.41, 2.4, 2.17, 0.8, -0.0, -0.0, -0.0, -0.65, -0.65, -1.4, -1.6, -1.24, -1.49, -2.24, -2.5, -3.48, -4.46, -4.43, -3.35, -1.9, -0.89, 0.0, 0.89, 0.58, 0.0, 0.0, 0.0, 0.0, 0.0, 0.0, 0.0, 0.0, 0.0, 0.0, 0.0, 0.0, 0.0, 0.0, 0.0, 0.0, 0.0, 0.0, 0.0, 0.0, 1.1, 3.49, 4.65, 4.46, 4.84, 3.84, 3.32, 4.02, 5.36, 6.71, 6.66, 6.07, 3.07, -0.0, -0.4, 0.0, 0.0, 0.45, 2.68, 4.02, 4.34, 3.48, 2.4, 2.2, 2.26, 2.31, 2.31, 2.31, 3.09, 3.0, 3.22, 3.64, 4.02, 4.02, 4.56, 4.71, 4.6, 4.5, 3.78, 3.15, 3.07, 3.2, 3.74, 3.22, 2.53, 2.29, 1.63, 2.26, 2.18, 2.18, 1.52, 0.0, 0.0, 0.0, 0.71, 2.17, 2.17, 0.8, -0.0, -0.0, -0.0, -0.65, -0.65, -1.4, -1.6, -1.24, -1.49, -2.24, -2.5, -3.48, -4.46, -4.43, -3.35, -1.9, -0.89, 0.0, 0.89, 0.54, 0.0, 0.0, 0.0, 0.0, 0.0, 0.0, 0.0, 0.0, 0.0, 0.0, 0.0, 0.0, 0.0, 0.0, 0.0, 0.0, 0.0, 0.0, 0.0, 0.0, 1.18, 4.43, 5.75, 6.4, 5.43, 4.46, 4.24, 4.02, 5.64, 7.6, 8.46, 9.11, 6.88, 1.86, 0.0, 0.0, 0.0, 0.89, 3.13, 3.97, 3.07, 2.3, 2.29, 1.52, 1.55, 1.55, 1.45, 1.63, 2.29, 2.2, 2.98, 2.98, 3.11, 3.64, 3.79, 3.91, 3.8, 3.88, 3.06, 3.0, 3.45, 4.24, 4.22, 2.79, 2.4, 3.11, 3.79, 3.91, 4.71, 4.71, 3.09, 0.81, 0.0, 0.0, 0.89, 1.58, 1.86, 0.54, -0.0, -0.0, 0.61, -0.0, -0.0, -0.0, -0.0, -0.71, -1.6, -2.17, -2.53, -3.72, -3.79, -2.86, -1.49, 0.0, -0.0, 0.0, 0.0, 0.54, 0.54, 0.0, 0.0, 0.0, 0.0, 0.0, 0.0, 0.0, 0.0, 0.0, 0.0, 0.0, 0.0, 0.0, 0.0, 0.0, 0.0, 0.0, 0.0, 0.0, 1.14, 3.48, 4.8, 5.75, 6.4, 5.86, 5.16, 4.47, 5.16, 5.64, 7.15, 8.36, 8.8, 6.32, 2.53, 2.6, 1.58, 1.7, 3.13, 3.51, 2.84, 2.3, 1.47, 0.82, 0.72, 0.76, 0.7, 0.73, 1.41, 2.0, 2.2, 2.4, 2.88, 2.88, 3.2, 3.09, 3.15, 2.35, 2.4, 2.79, 3.74, 4.4, 3.49, 3.72, 5.06, 6.39, 7.61, 8.24, 9.21, 8.53, 6.79, 5.59, 1.2, -0.0, -0.0, -0.0, -0.0, 0.54, -0.0, -0.0, 0.7, 0.61, -0.0, -0.0, -0.0, -0.0, -0.89, -2.4, -3.16, -3.07, -1.9, -0.63, 0.0, -0.0, 0.0, 0.0, 0.0, 0.54, 0.54, 0.0, 0.0, 0.0, 0.0, 0.0, 0.0, 0.0, 0.0, 0.0, 0.0, 0.0, 0.0, 0.0, 0.0, 0.0, 0.0, 0.0, -0.74, 0.0, 2.6, 4.09, 4.34, 4.85, 6.61, 6.36, 5.7, 4.92, 3.97, 3.07, 2.8, 5.36, 6.4, 6.87, 6.01, 5.37, 3.49, 1.86, 2.68, 3.51, 3.49, 3.07, 2.2, 2.0, 1.66, 1.49, 0.61, 0.76, 1.49, 1.49, 2.4, 2.98, 2.88, 3.0, 3.09, 2.31, 2.31, 2.31, 1.6, 2.5, 3.74, 3.45, 4.84, 7.03, 9.27, 10.23, 10.28, 10.9, 10.9, 9.85, 8.76, 7.8, 3.79, 0.57, -0.0, -0.0, -0.0, 0.57, -0.0, -0.0, -0.0, -0.0, -0.0, -0.0, -0.0, 0.0, -0.6, -1.88, -2.51, -1.88, 0.0, 0.45, 0.63, -0.0, 0.0, -0.89, -0.45, 0.0, 0.0, 0.0, 0.0, 0.0, 0.0, 0.0, 0.0, 0.0, 0.0, 0.0, 0.0, 0.0, 0.0, 0.0, 0.0, 0.0, 0.0, -0.82, -0.83, 0.83, 4.81, 6.23, 6.14, 5.81, 5.36, 6.14, 6.14, 6.61, 5.26, 2.68, 1.26, 1.34, 2.53, 3.22, 4.36, 4.95, 4.83, 1.9, 2.17, 2.68, 4.4, 3.79, 3.79, 3.79, 3.72, 2.98, 1.84, 0.65, 0.65, 1.6, 2.53, 2.4, 2.29, 2.35, 2.31, 1.49, 1.49, 1.55, 1.41, 2.8, 3.07, 4.4, 7.47, 9.6, 11.09, 10.48, 9.9, 8.94, 8.6, 7.82, 6.71, 7.08, 6.05, 2.15, 0.6, -0.0, -0.0, 0.65, -0.0, -0.0, -0.0, -0.0, -0.0, -0.0, -0.0, 0.0, 0.0, -1.16, -1.88, -1.24, 0.0, 0.45, 0.63, -0.0, -0.63, -1.2, -0.89, 0.0, 0.0, 0.0, 0.0, 0.0, 0.0, 0.0, 0.0, 0.0, 0.0, 0.0, 0.0, 0.0, 0.0, 0.0, 0.0, 0.0, 0.0, -0.76, -0.76, 1.55, 4.22, 4.85, 5.36, 5.36, 4.92, 4.92, 5.7, 6.14, 5.75, 2.98, 2.54, 2.54, 2.53, 3.48, 4.46, 5.15, 5.72, 2.84, 2.24, 2.24, 4.77, 5.01, 5.75, 5.59, 4.01, 4.65, 4.43, 3.16, 3.22, 3.22, 1.16, 1.55, 1.41, 0.74, 0.0, 0.0, 0.0, 0.0, 1.2, 2.6, 3.51, 5.64, 8.19, 8.4, 9.2, 8.68, 6.95, 5.49, 4.6, 3.7, 2.99, 2.06, 2.4, 2.26, 0.61, 0.0, 1.24, 1.2, -0.0, -0.0, -0.65, -1.24, -0.57, -0.6, -0.0, 0.0, 0.0, 0.0, -1.26, -0.89, 0.0, 0.45, 0.63, 0.0, -1.6, -1.7, -0.89, 0.0, 0.0, 0.0, 0.0, 0.0, 0.0, 0.0, 0.0, 0.0, 0.0, 0.0, 0.0, 0.0, 0.0, 0.0, 0.0, -0.53, -0.61, -0.61, 0.0, 0.0, 0.8, 1.34, 2.0, 2.54, 3.13, 3.58, 4.92, 5.2, 4.65, 4.65, 5.2, 5.2, 4.65, 4.46, 4.22, 3.48, 3.33, 3.49, 2.23, 3.58, 3.82, 4.8, 5.01, 4.74, 5.93, 6.44, 6.7, 7.06, 6.52, 1.88, 0.65, 0.0, 0.0, 0.0, -0.78, -0.82, -0.61, -0.6, 0.89, 2.6, 4.41, 4.87, 6.79, 6.0, 5.46, 5.59, 3.91, 1.45, 0.0, 0.0, -0.74, -0.72, -1.41, -0.67, -0.61, 0.0, 0.63, 0.89, 0.0, -0.89, -1.24, -1.24, -0.99, -0.42, -0.0, -0.0, 0.45, 0.0, -0.63, -0.6, -0.0, 1.26, 0.63, 0.0, -1.26, -1.2, -0.89, 0.0, 0.0, 0.0, 0.0, 0.0, 0.0, 0.0, 0.0, 0.0, 0.0, 0.0, -0.61, 0.0, 0.0, 0.0, 0.0, -0.61, -0.61, -0.65, 0.0, 0.0, 0.0, 0.0, 1.34, 1.6, 2.68, 2.8, 1.6, 4.02, 4.09, 4.09, 4.77, 4.77, 4.8, 4.19, 2.68, 0.0, 0.0, 2.48, 3.82, 4.02, 4.24, 4.09, 4.11, 4.74, 6.07, 8.22, 9.2, 8.68, 8.3, 6.64, 2.07, 0.0, -0.66, -1.6, -2.29, -2.73, -2.21, -1.2, 0.8, 4.41, 6.55, 4.87, 5.16, 3.83, 3.35, 2.9, 0.73, -1.55, -3.09, -3.0, -2.8, -3.11, -3.32, -2.66, -2.07, -1.16, -0.65, -0.57, -0.6, -0.95, -1.26, -0.99, -0.57, -0.0, -0.0, 0.4, -0.0, -0.0, -0.57, -0.0, 1.58, 1.58, 1.2, 0.0, 0.0, -0.95, -0.89, 0.0, 0.0, 0.0, 0.0, 0.0, 0.0, 0.0, 0.0, 0.0, 0.0, 0.0, -0.56, -1.09, -1.16, -0.76, -0.81, -0.79, -1.33, -2.4, -2.4, -2.16, 0.0, 1.27, 3.13, 3.13, 3.13, 2.8, 1.2, 1.34, 2.53, 2.84, 3.13, 2.24, 1.58, 2.23, 2.2, 1.4, 1.58, 3.82, 4.24, 4.02, 4.15, 3.58, 3.48, 4.54, 6.7, 6.94, 6.82, 7.02, 6.95, 7.97, 8.32, 5.77, 2.15, 0.0, 0.0, -1.24, -3.13, -1.79, 2.24, 8.8, 9.7, 8.67, 6.28, 5.43, 3.79, 3.0, 1.4, -1.88, -5.09, -5.09, -4.75, -4.74, -4.11, -2.79, -2.53, -2.5, -2.5, -2.15, -1.58, -1.24, 0.0, -0.89, 0.0, 0.0, 0.89, 0.45, 0.0, -0.6, -0.0, 0.57, 1.58, 1.58, 1.6, 1.2, 0.0, -0.6, -1.2, 0.0, 0.0, 0.0, 0.0, 0.0, 0.0, 0.0, 0.0, 0.0, 0.0, -0.56, -0.59, -1.16, -1.16, -0.78, -1.47, -1.6, -2.96, -2.96, -3.42, -2.2, 0.0, 2.68, 3.47, 3.13, 0.89, 0.45, 0.0, -0.45, 0.0, 0.0, 0.63, 0.0, 0.0, 0.0, 1.41, 3.72, 4.02, 3.95, 4.15, 3.74, 3.22, 2.21, 4.09, 5.2, 5.59, 5.75, 5.21, 4.11, 5.46, 9.6, 11.88, 12.56, 11.95, 10.25, 9.33, 7.21, 0.0, -0.0, 7.6, 12.05, 11.96, 9.58, 8.4, 9.08, 9.2, 9.6, 8.24, 2.86, -0.6, -3.07, -5.02, -5.6, -4.09, -2.86, -1.9, -2.17, -2.68, -2.6, -2.12, -0.4, 1.0, 1.84, 0.53, 1.2, 1.2, 1.24, 0.0, -0.0, -0.0, 0.57, 1.26, 1.26, 1.2, 0.89, 0.8, 0.0, -1.34, 0.0, 0.0, 0.0, 0.0, 0.0, 0.0, 0.0, 0.0, 0.0, 0.0, -0.56, -0.55, -0.58, -1.14, -1.2, -1.67, -1.67, -2.33, -2.33, -2.89, -2.75, -1.14, 0.59, 1.9, 0.0, 0.0, 0.0, 0.0, -1.34, -1.79, -0.95, 0.0, 0.0, -1.26, -0.95, 0.8, 2.8, 2.97, 2.6, 3.22, 3.58, 3.22, 1.86, 4.24, 5.2, 4.85, 6.23, 6.23, 5.81, 6.17, 10.02, 12.14, 14.11, 15.93, 15.91, 15.34, 15.36, 9.9, 3.97, 11.15, 13.39, 12.77, 10.49, 10.62, 13.32, 15.47, 16.83, 16.25, 14.7, 10.52, 5.09, 1.2, -1.26, -2.63, -2.24, -1.34, -1.34, -1.7, -1.7, -1.6, 0.0, 2.23, 3.07, 2.2, 2.66, 3.43, 2.0, 0.54, 0.0, -0.0, 0.6, 0.6, 0.6, 0.63, 0.45, 0.0, -0.89, -1.7, 0.0, 0.0, 0.0, 0.0, 0.0, 0.0, 0.0, 0.0, 0.0, -0.57, -0.56, -0.55, -0.58, -1.14, -1.12, -1.18, -1.16, -1.73, -1.75, -2.19, -2.21, -2.29, -0.61, 0.0, 0.0, -0.57, 0.0, 0.0, -1.26, -2.17, -1.7, -0.63, 0.0, 0.0, 0.0, 1.34, 1.79, 2.0, 2.4, 2.98, 3.6, 4.15, 3.95, 3.58, 4.92, 5.81, 7.06, 7.5, 7.52, 7.97, 8.46, 9.36, 10.73, 11.18, 12.07, 12.31, 12.62, 13.39, 9.2, 10.73, 13.41, 12.27, 10.16, 11.62, 14.75, 16.09, 16.54, 16.47, 15.61, 15.49, 14.49, 10.86, 5.94, 0.54, -1.34, -1.79, -0.89, -0.89, -0.89, -1.26, -0.6, 0.6, 0.57, 0.72, 3.79, 4.46, 3.6, 2.11, 1.24, 0.45, 0.6, 0.6, 0.6, -0.0, 0.0, -0.8, -1.86, -1.9, 0.0, 0.0, 0.0, 0.0, 0.0, 0.0, 0.0, 0.0, -0.57, -0.57, -0.56, -0.59, -0.58, -0.57, -1.12, -1.18, -1.16, -1.16, -1.16, -1.75, -2.19, -2.37, -1.76, -0.55, 0.0, 0.0, 0.0, 0.0, -0.53, -1.24, -2.23, -0.95, -1.4, 0.0, 2.0, 1.26, 1.6, 2.54, 2.54, 2.6, 3.2, 3.95, 4.47, 5.36, 4.92, 5.36, 5.36, 6.26, 6.71, 6.71, 6.71, 7.15, 7.06, 6.58, 6.26, 6.07, 7.6, 10.23, 11.12, 9.83, 11.18, 11.12, 11.62, 13.36, 13.39, 13.41, 12.52, 11.18, 10.7, 8.88, 10.55, 10.12, 7.79, 3.95, 0.0, -1.24, 0.57, 1.49, 1.6, 0.0, -1.26, -1.7, -1.33, -1.35, 1.35, 2.26, 2.97, 3.15, 2.66, 1.61, 0.89, 0.71, -0.0, -0.0, -1.0, -1.2, -1.88, -1.4, 0.0, 0.0, 0.0, 0.0, 0.0, 0.0, 0.0, 0.0, -0.57, -0.57, -0.56, -0.59, -0.58, -0.57, -0.56, -1.18, -1.11, -1.16, -1.16, -1.11, -1.75, -2.19, -2.21, -0.57, 0.0, 0.0, 0.0, 0.0, 0.0, -0.61, -1.2, -1.9, -1.4, 0.0, 1.2, 1.9, 2.8, 1.2, 2.53, 1.9, 2.6, 4.02, 3.58, 3.58, 3.58, 3.58, 4.02, 4.92, 5.36, 5.36, 5.81, 5.81, 4.77, 3.82, 3.58, 4.92, 5.81, 7.33, 9.52, 9.77, 8.91, 8.94, 9.6, 9.54, 9.77, 10.28, 9.83, 8.41, 6.13, 5.59, 5.37, 5.18, 2.99, 0.0, 0.0, 2.07, 5.77, 7.52, 6.87, 4.71, 0.61, -1.26, -2.4, -2.4, -3.07, -0.59, 0.69, 2.18, 3.26, 3.22, 1.9, 0.6, -0.0, -0.0, -0.76, -1.16, -0.61, -0.61, 0.0, 0.0, 0.0, 0.0, 0.0, 0.0, 0.0, 0.0, -0.57, -0.57, -0.56, -0.59, -0.55, -0.54, -0.57, -0.56, -0.56, -1.16, -1.16, -1.16, -1.11, -1.75, -2.19, -1.1, 0.0, 0.59, 0.0, 0.0, 0.0, -0.59, -1.4, -1.49, -1.49, 0.0, 0.0, 0.6, 0.8, 0.57, 0.0, 1.4, 2.4, 2.54, 3.58, 3.13, 3.13, 3.13, 3.58, 4.02, 3.82, 3.82, 4.34, 4.47, 4.02, 2.8, 2.68, 3.58, 4.77, 6.23, 8.22, 7.97, 6.71, 6.61, 6.8, 5.93, 5.81, 6.14, 5.81, 6.61, 7.2, 5.37, 2.29, 0.0, 0.0, -0.75, 1.23, 7.67, 10.28, 11.06, 9.66, 8.61, 6.9, 3.88, 0.0, -1.79, -3.04, -3.04, -1.88, 0.0, 0.61, 1.4, 1.88, -0.0, -0.0, -0.0, -0.85, -0.54, -0.53, -0.53, 0.0, 0.0, 0.0, 0.0, 0.0, 0.0, 0.0, 0.0, -0.57, -0.57, -0.61, -0.56, -0.55, -0.58, -0.57, -0.56, -0.56, -0.59, -1.16, -1.16, -1.11, -1.18, -1.75, -1.14, 0.0, 0.57, 0.57, 0.61, 0.0, 0.0, -0.61, -1.2, -1.49, -1.4, 0.0, 0.0, 0.98, 0.0, 0.0, 1.9, 2.8, 2.54, 3.2, 2.68, 3.58, 3.58, 3.58, 3.13, 2.24, 1.9, 1.2, 1.9, 2.4, 2.8, 2.8, 3.58, 4.02, 4.24, 4.09, 5.2, 5.2, 4.77, 4.11, 4.11, 3.79, 2.68, 4.09, 5.36, 6.8, 5.69, 1.02, -2.11, -1.5, 0.0, 5.06, 9.3, 10.86, 11.08, 10.35, 9.42, 9.02, 8.36, 5.86, 1.2, -1.58, -1.49, -2.68, 0.0, 0.63, 1.24, 1.2, 0.63, -0.0, -0.63, -0.45, -0.63, -0.57, -0.57, 0.0, 0.0, 0.0, 0.0, 0.0, 0.0, 0.0, 0.0, 0.0, -0.57, -0.61, -0.56, -0.55, -0.58, -0.57, -0.56, -0.59, -0.56, -0.59, -0.56, -0.56, -1.11, -1.16, -1.11, 0.0, 0.0, 0.0, 0.55, 0.61, 0.63, 0.0, 0.0, -1.2, -1.2, -0.65, 0.0, 0.0, 1.19, 1.27, 2.8, 2.4, 2.4, 2.4, 2.68, 3.13, 3.13, 2.68, 2.24, 1.79, 1.79, -0.0, -0.0, 1.58, 1.9, 1.9, 1.58, 2.24, 2.4, 3.2, 3.6, 4.02, 4.02, 3.72, 3.48, 2.73, 2.41, 2.41, 2.8, 1.6, 1.22, 1.13, 0.0, 0.0, 2.99, 5.59, 5.94, 6.97, 7.71, 7.91, 7.7, 6.9, 6.79, 6.0, 0.61, -0.0, -0.0, 0.57, -0.0, 0.32, 0.63, 1.9, 1.2, 0.0, -0.8, -0.63, -0.63, -0.45, -0.45, 0.0, 0.0, 0.0, 0.0, 0.0, 0.0, 0.0, 0.0, 0.0, -0.57, -0.61, -0.56, -0.59, -0.58, -0.58, -0.79, -0.57, -0.59, -0.56, 0.0, 0.0, -0.59, -1.18, -0.74, 0.0, 0.0, 0.65, 0.79, 0.88, 1.23, 0.66, 0.0, 0.0, -0.65, -1.2, -0.61, 0.0, 0.57, 1.66, 1.41, 1.74, 0.99, 1.4, 1.9, 2.68, 2.24, 2.24, 2.24, 2.24, 2.24, 2.24, 2.68, 2.4, 1.9, 1.58, 2.24, 1.79, 2.24, 2.4, 2.8, 3.13, 2.68, 3.39, 2.23, 3.16, 2.41, 1.6, -0.0, -1.98, -1.25, 0.0, 2.37, 2.33, 2.22, 1.5, 0.0, -0.77, 0.0, 0.77, 2.35, 2.22, 2.37, 2.34, 1.32, 0.0, 0.0, 0.63, 1.2, 0.45, 0.0, 1.26, 1.2, 0.0, -0.6, -0.63, 0.0, -0.57, -0.57, -0.55, -0.59, 0.0, 0.0, 0.0, 0.0, 0.0, -0.57, -0.57, -0.57, -0.56, -0.56, -0.59, -0.58, -0.54, -0.57, -0.56, -0.56, 0.0, 0.0, 0.0, -0.57, -1.14, -1.49, 0.0, 0.76, 1.66, 1.23, 1.19, 1.73, 1.23, 1.13, 0.0, 0.0, -0.65, -1.16, -0.61, 0.0, 0.0, 0.63, 0.55, 0.63, 0.0, 0.61, 0.71, 1.58, 2.24, 2.24, 2.24, 2.24, 2.68, 3.13, 3.13, 2.68, 0.89, 0.89, 2.68, 0.63, 0.89, 1.79, 1.79, 2.24, 3.2, 3.72, 3.22, 1.6, -0.0, -1.34, -1.8, -1.63, 0.0, 0.77, 0.75, 0.0, -3.17, -5.99, -7.44, -7.73, -3.04, -0.75, 0.0, 0.0, 0.0, 0.77, 0.0, 0.0, 0.63, 2.0, 1.24, 0.57, 0.0, 0.0, 0.0, 0.0, 0.0, 0.0, 0.0, 0.0, -0.55, -0.56, -0.56, 0.0, 0.0, 0.0, -0.57, -0.57, -0.57, -0.57, -0.61, -0.56, -0.59, -0.55, -0.58, -0.57, -0.56, -0.56, -0.56, -0.79, -0.74, -0.54, -1.14, -1.12, -1.11, 0.0, 0.58, 1.23, 1.16, 1.16, 1.73, 1.76, 0.57, 0.0, -0.61, -0.61, -0.61, 0.0, 0.0, 0.0, 0.0, 0.0, 0.0, 0.55, 0.59, 1.6, 1.9, 1.9, 1.58, 2.4, 3.13, 3.58, 3.13, 2.68, 2.68, 0.89, 1.2, 1.2, 0.0, 0.0, 2.24, 3.39, 3.82, 2.53, 1.9, 1.0, -0.0, 0.0, 0.0, 0.0, 0.76, 2.31, 2.97, 0.0, -4.68, -8.53, -12.01, -10.9, -8.53, -5.41, -2.25, 0.0, 0.76, 2.01, 2.26, 1.33, 1.24, 2.21, 1.8, 0.59, -0.61, -1.13, -0.73, 0.0, 0.0, 0.0, 0.0, 0.0, -0.59, -0.56, -0.56, -0.61, -0.61, -0.57, -0.57, -0.57, -0.57, -0.57, -0.61, -0.56, -0.56, -0.59, -0.58, -0.57, -0.57, -0.56, -0.59, -1.11, -0.56, -0.59, -0.56, -1.11, -1.1, -0.58, 0.0, 0.0, 0.0, 0.54, 1.19, 1.7, 1.19, 0.0, 0.0, -0.51, -0.61, 0.0, 0.0, 0.0, 0.0, 0.0, 0.0, 0.61, 0.55, 1.11, 1.27, 1.2, 1.9, 2.21, 2.8, 3.13, 2.68, 2.68, 2.68, 2.68, 1.79, 2.17, 1.79, -0.0, 1.49, 2.6, 3.47, 2.0, 2.0, 0.95, -0.0, 0.0, 1.9, 4.09, 6.13, 8.72, 9.48, 5.38, -4.92, -8.97, -11.47, -11.73, -10.65, -8.58, -5.38, -2.06, 0.0, 2.97, 3.78, 3.8, 2.2, 2.0, 1.36, 0.0, -1.23, -1.8, -1.27, 0.0, 0.0, 0.54, 0.61, 0.61, -0.59, -0.59, -0.56, -0.57, -0.57, -0.57, -0.57, -0.57, -0.57, -0.57, -0.61, -0.56, -0.56, -1.18, -1.16, -0.58, -0.57, -0.56, -0.56, -0.56, -0.56, -0.56, -0.56, -0.59, -0.55, -0.58, 0.0, 0.0, 0.0, 0.0, 0.61, 1.07, 1.16, 0.54, 0.0, 0.0, 0.0, 0.0, 0.0, 0.0, 0.0, 0.0, 0.59, 0.59, 0.61, 1.08, 1.19, 0.0, 1.2, 1.4, 2.21, 2.8, 2.8, 2.8, 3.2, 3.2, 3.58, 4.85, 1.7, 0.63, 1.26, 3.04, 3.58, 2.24, 0.95, 1.34, 0.0, -0.0, 2.97, 5.59, 7.52, 8.41, 6.0, 2.4, -2.23, -5.36, -8.24, -10.1, -10.38, -9.86, -7.54, -3.9, -0.72, 0.0, 2.35, 3.11, 3.21, 2.31, 1.44, 1.52, -0.57, -1.9, -1.2, 0.0, 0.0, 0.61, 0.0, 0.0, -0.59, -0.59, -0.56, -0.61, -0.57, -0.57, -0.57, -0.57, -0.57, -0.57, -0.61, -0.56, -1.1, -1.18, -1.09, -1.16, -0.57, -0.57, -0.56, -0.56, -0.59, 0.0, 0.0, 0.0, -0.55, 0.0, 0.0, 0.0, 0.0, 0.0, 0.0, 0.53, 1.16, 1.16, 1.07, 0.55, 0.0, 0.0, 0.0, 0.0, 0.0, 0.0, 0.0, 0.53, 0.59, 0.61, 1.05, 1.08, 1.27, 1.27, 1.27, 1.13, 2.53, 2.53, 2.84, 4.24, 4.38, 5.09, 4.29, 0.63, 0.95, 2.54, 3.13, 2.24, 0.89, 1.34, 0.0, 2.24, 3.47, 4.8, 5.09, 1.11, 3.01, 5.51, 4.0, -2.4, -6.71, -8.67, -9.6, -10.05, -8.97, -6.25, -3.43, -2.04, -0.79, 0.0, 0.0, 0.0, 0.71, 2.4, 0.63, 0.0, -1.26, -0.8, 0.0, 0.0, 0.0, 0.0, -1.1, -1.1, -0.56, -0.61, -0.57, -0.57, -0.57, -0.57, -0.57, -0.57, -0.61, -1.1, -1.1, -1.18, -1.09, -1.16, -1.07, -0.57, -0.57, -0.56, -0.56, 0.0, 0.0, 0.0, 0.0, 0.0, 0.0, 0.0, 0.0, 0.0, 0.0, 0.0, 0.58, 1.7, 1.7, 1.7, 0.61, 0.55, 0.0, 0.0, 0.0, 0.0, 0.0, 0.0, 0.58, 0.59, 0.59, 1.16, 1.16, 1.16, 1.73, 2.2, 1.27, 1.27, 2.84, 3.35, 4.77, 4.22, 4.43, 3.48, 4.02, 2.68, 1.79, 1.79, 1.34, 2.4, 2.98, 4.66, 5.81, 4.92, 2.68, 1.55, 3.21, 7.71, 8.62, 5.4, -1.16, -3.97, -7.31, -8.36, -9.28, -7.92, -5.6, -4.43, -3.11, -2.04, -1.36, 0.0, 0.0, 2.0, 3.69, 2.9, 0.0, -1.24, -1.26, -0.57, 0.0, 0.0, -1.1, -1.1, -1.1, -1.2, -1.2, -1.2, -0.57, -0.57, -1.12, -1.12, -1.2, -1.1, -1.1, -1.18, -1.18, -1.16, -1.16, -1.14, -0.57, -0.57, -0.56, -0.56, 0.0, 0.0, 0.0, 0.0, 0.0, 0.0, 0.0, 0.0, 0.0, 0.0, 0.0, 1.14, 1.7, 2.18, 1.7, 0.59, 0.0, 0.0, 0.0, 0.0, 0.0, 0.0, 0.58, 0.58, 0.58, 1.14, 1.14, 1.16, 1.7, 2.4, 2.4, 1.19, 2.48, 2.84, 3.72, 4.09, 5.01, 6.79, 6.36, 3.47, 2.6, 2.24, 2.6, 4.15, 5.34, 6.51, 5.64, 5.34, 4.11, 3.4, 3.88, 6.77, 9.28, 11.02, 6.29, -2.4, -3.58, -4.47, -7.6, -7.57, -6.58, -4.66, -3.16, -2.0, -1.35, -0.63, 0.0, 1.16, 1.27, 4.31, 2.76, 0.0, -1.34, -0.89, 0.0, 0.0, -1.1, -1.1, -1.1, -1.1, -1.2, -1.2, -1.12, -1.12, -1.12, -1.12, -1.2, -1.1, -1.1, -1.18, -1.18, -1.09, -1.16, -1.16, -1.14, -0.57, -0.57, -0.56, -0.56, 0.0, 0.0, 0.0, 0.0, 0.0, 0.0, 0.0, 0.0, 0.0, 0.0, 0.0, 0.55, 1.67, 2.18, 1.67, 1.23, 0.57, 0.0, 0.0, 0.0, 0.0, 0.0, 0.58, 0.58, 0.62, 0.58, 1.16, 1.88, 2.4, 2.18, 1.73, 1.49, 2.15, 3.72, 3.72, 4.57, 6.07, 6.13, 4.46, 3.35, 3.95, 5.7, 4.66, 5.59, 5.29, 5.59, 4.84, 3.63, 2.47, 3.09, 4.71, 6.87, 9.39, 9.07, 0.57, -2.6, -2.68, -3.13, -5.81, -5.36, -4.43, -3.6, -3.16, -1.94, -1.23, 0.0, 0.53, 0.61, 0.61, 3.02, 1.45, 0.0, 0.0, 0.0, 0.0, -1.1, -1.1, -1.1, -1.1, -1.1, -1.2, -1.2, -1.12, -1.12, -1.12, -1.2, -1.1, -1.1, -1.18, -1.18, -1.09, -1.16, -1.16, -1.14, -1.14, -0.57, -0.57, -0.56, -0.56, 0.0, 0.0, 0.0, 0.0, 0.0, 0.0, 0.0, 0.59, 0.0, 0.0, 0.56, 1.18, 1.67, 1.84, 1.14, 0.57, 0.0, 0.0, 0.0, 0.0, 0.0, 0.0, 0.0, 0.58, 0.58, 1.16, 1.88, 2.4, 2.18, 1.7, 1.73, 1.49, 2.48, 3.16, 3.74, 4.8, 4.11, 2.4, 3.74, 5.36, 5.31, 5.4, 2.24, 0.89, 1.34, 2.53, 2.53, 1.7, 0.0, 0.0, 2.35, 2.37, 1.56, 2.31, -0.54, -1.34, -1.7, -5.09, -5.7, -3.97, -4.73, -4.66, -3.16, -1.16, 0.0, 0.0, 0.0, 0.0, 1.47, 2.83, 2.72, 1.27, 0.61, 0.61, -1.1, -1.1, -1.1, -1.1, -1.1, -0.56, -0.56, -0.61, -1.2, -1.12, -1.2, -1.1, -1.1, -1.1, -1.18, -1.18, -1.09, -1.16, -1.16, -1.14, -0.57, -0.57, -0.57, -0.56, -0.56, 0.0, 0.0, 0.0, 0.0, 0.0, 0.0, 0.59, 0.59, 0.55, 0.0, 0.57, 1.76, 1.67, 1.67, 1.12, 0.56, 0.0, 0.0, 0.0, 0.0, 0.0, 0.0, 0.0, 0.59, 1.16, 2.18, 2.36, 2.36, 1.84, 1.88, 1.94, 2.4, 3.48, 2.23, 3.16, 2.47, 3.35, 5.81, 6.26, 4.66, 4.15, 3.04, 0.89, -0.63, 0.0, 1.66, 2.35, 0.0, -1.49, -3.91, -4.65, -3.17, 0.0, 1.5, 0.0, -1.24, -4.37, -3.78, -3.72, -3.07, -3.07, -2.6, -1.86, -1.24, -0.54, 0.0, 1.33, 3.26, 3.51, 4.07, 4.14, 3.2, 3.2, -1.63, -1.63, -1.1, -1.1, -1.1, -0.56, -0.56, -0.56, -0.56, -1.1, -1.2, -1.1, -1.1, -1.1, -1.18, -1.18, -1.09, -1.16, -1.16, -1.16, -0.57, -0.57, -0.57, -0.57, -0.61, -0.56, 0.0, 0.0, 0.0, 0.0, 0.0, 0.0, 0.59, 0.59, 0.56, 0.56, 1.09, 1.8, 1.67, 1.23, 1.1, 0.58, 0.54, 0.58, 0.55, 0.74, 0.0, 0.54, 1.16, 2.36, 2.36, 2.32, 2.32, 2.32, 1.67, 1.7, 2.4, 2.86, 2.21, 2.15, 3.22, 5.2, 6.26, 4.92, 3.6, 4.92, 7.15, 3.47, 0.45, -0.0, 1.74, 4.03, 2.9, 0.0, -5.28, -7.63, -6.1, -3.91, 0.0, 0.75, -0.73, -4.24, -4.32, -3.0, -1.94, -1.58, -1.49, -0.95, -0.57, 0.0, 1.4, 3.72, 5.13, 4.5, 4.0, 4.28, 4.28, 4.28, -1.63, -1.63, -1.1, -1.1, -1.1, -1.1, -1.1, -0.56, -1.1, -1.1, -1.1, -1.1, -1.1, -1.1, -1.1, -1.18, -1.18, -1.09, -1.16, -1.16, -1.16, -1.07, -1.14, -0.57, -0.57, -0.57, -0.56, 0.0, 0.0, 0.0, 0.0, 0.0, 0.0, 0.56, 0.56, 0.0, 0.58, 1.2, 1.67, 1.67, 1.2, 1.09, 0.58, 0.54, 0.58, 0.76, 0.74, 1.12, 1.76, 2.32, 2.32, 2.32, 2.29, 2.29, 2.29, 2.14, 2.36, 2.84, 3.12, 2.98, 4.11, 5.59, 4.92, 2.6, 2.68, 4.66, 6.65, 7.74, 5.24, 2.53, 0.6, 3.22, 3.11, 3.23, 0.0, -5.3, -6.88, -6.24, -4.5, -1.53, -0.7, -2.81, -3.61, -1.75, 0.0, 0.0, 0.57, 0.61, 1.41, 2.04, 3.64, 4.71, 4.94, 4.73, 4.66, 4.73, 4.28, 4.28, -1.63, -1.63, -1.63, -1.1, -1.1, -1.1, -1.18, -1.18, -1.18, -1.18, -1.63, -1.63, -1.63, -1.63, -1.63, -1.73, -1.18, -1.18, -1.09, -1.16, -1.16, -1.16, -1.14, -1.14, -0.57, -0.57, -0.57, -0.57, 0.0, 0.0, 0.0, 0.0, 0.0, 0.0, 0.0, 0.0, 0.0, 0.59, 1.12, 1.14, 1.12, 1.1, 1.16, 1.16, 0.58, 0.57, 1.14, 1.69, 1.71, 1.73, 1.65, 1.8, 1.65, 1.76, 2.26, 2.26, 2.29, 2.36, 2.4, 3.12, 4.46, 4.66, 2.0, 1.58, 2.68, 4.15, 4.66, 4.77, 5.06, 3.68, 0.85, 0.0, 0.0, 3.34, 3.98, 0.0, -2.8, -4.47, -6.07, -5.62, -2.84, -1.4, 0.0, 0.61, 1.12, 1.76, 2.96, 2.93, 3.02, 3.51, 4.29, 4.43, 4.07, 4.37, 4.87, 4.2, 4.28, 4.28, -1.63, -1.63, -1.63, -1.63, -1.1, -1.18, -1.18, -1.73, -1.73, -1.73, -2.26, -2.26, -2.26, -2.44, -2.29, -2.29, -1.63, -2.29, -1.63, -1.18, -1.16, -1.16, -1.16, -1.14, -1.14, -0.57, -0.57, -0.57, -0.57, 0.0, 0.0, 0.0, 0.0, 0.0, 0.0, 0.0, 0.0, 0.0, 1.2, 1.23, 1.23, 1.12, 0.59, 0.58, 0.58, 0.58, 0.57, 1.14, 1.71, 1.73, 1.76, 1.8, 1.8, 1.76, 1.76, 1.73, 1.73, 1.8, 1.7, 3.12, 4.07, 3.2, 3.16, 2.6, 4.02, 4.92, 4.02, 2.54, 2.2, 2.12, 0.76, 0.0, 0.0, 1.52, 3.98, 5.41, 0.0, -4.4, -4.88, -6.32, -4.24, -1.36, 2.07, 2.68, 2.49, 1.71, 1.79, 2.34, 2.41, 3.2, 3.79, 3.84, 3.15, 3.0, 3.51, 3.88, 3.51, 3.51, -1.63, -1.63, -1.63, -1.63, -1.73, -1.73, -1.73, -1.73, -1.84, -2.4, -2.4, -2.75, -2.75, -2.96, -2.96, -2.77, -3.45, -2.8, -2.29, -1.76, -1.73, -1.16, -1.16, -1.16, -1.07, -0.57, -0.57, -0.57, -0.57, -0.57, 0.0, 0.0, 0.0, 0.0, 0.0, 0.0, 0.0, 0.0, 0.59, 1.12, 1.14, 0.57, 0.61, 0.59, 0.55, 0.58, 0.58, 0.57, 1.16, 1.71, 1.76, 1.65, 1.8, 1.65, 1.76, 1.76, 1.73, 1.2, 1.84, 2.2, 4.65, 4.29, 4.09, 4.77, 4.92, 4.85, 4.15, 2.41, 1.3, 2.49, 3.22, 2.73, 2.4, 1.65, 2.31, 6.26, 5.4, -1.2, -5.36, -6.96, -5.46, 0.0, 2.68, 3.07, 1.84, 1.2, 0.59, 1.17, 2.18, 2.51, 3.07, 2.8, 2.15, 1.35, 1.41, 2.69, 2.82, 2.82, -2.26, -2.26, -1.63, -1.73, -1.73, -1.73, -1.84, -2.23, -2.23, -2.23, -2.73, -2.92, -3.4, -3.64, -4.1, -3.72, -3.47, -2.82, -3.04, -2.32, -1.76, -1.18, -1.16, -1.16, -1.16, -1.16, -0.54, -0.54, -0.57, -0.57, -0.57, -0.57, 0.0, 0.0, 0.0, 0.0, 0.0, 0.0, 0.0, 0.61, 0.58, 0.58, 0.57, 0.56, 0.0, 0.0, 0.0, 0.58, 1.16, 1.09, 1.63, 1.76, 1.12, 1.23, 1.12, 1.76, 1.63, 1.2, 1.14, 3.49, 4.55, 5.01, 4.8, 5.2, 5.26, 4.34, 2.84, 1.66, 1.7, 4.43, 6.0, 7.2, 5.69, 2.99, 2.31, 4.76, 7.8, 5.48, 0.0, -4.65, -4.75, 0.0, 2.24, 1.9, 1.49, 1.84, 1.81, 1.8, 2.53, 2.53, 2.53, 2.21, 1.49, 1.4, 0.61, 0.66, 1.98, 1.98, -2.26, -2.26, -2.26, -2.26, -2.26, -2.4, -2.23, -2.23, -2.23, -2.89, -2.89, -3.37, -3.4, -4.08, -3.45, -3.47, -3.08, -2.84, -2.4, -2.36, -1.8, -1.2, -1.18, -1.16, -1.16, -1.16, -0.58, -0.58, -0.58, -0.57, -0.57, -0.57, -0.57, 0.0, 0.0, 0.0, 0.0, -0.56, 0.0, 0.0, 0.57, 0.58, 0.0, 0.0, 0.0, 0.0, 0.0, 0.0, 0.55, 0.59, 1.1, 1.2, 1.12, 1.23, 1.23, 1.12, 1.2, 1.76, 1.8, 3.49, 4.71, 4.65, 4.8, 3.47, 2.12, 2.53, 0.57, 0.98, 3.58, 6.21, 7.97, 7.89, 6.3, 4.07, 2.31, 2.39, 4.48, 7.0, 5.51, 0.67, -1.35, 0.0, 0.45, 0.57, 1.2, 1.88, 2.8, 2.91, 2.91, 2.5, 2.21, 1.88, 1.49, 0.85, 0.61, 0.66, 1.35, 1.35, -2.26, -2.26, -2.26, -2.26, -2.4, -2.23, -2.23, -2.23, -2.37, -2.89, -2.89, -2.89, -2.89, -3.42, -3.47, -2.82, -2.2, -2.44, -1.73, -1.88, -1.67, -1.12, -1.1, -1.18, -1.09, -1.16, -1.16, -0.58, -0.58, -0.58, -0.54, -0.57, -0.57, -0.57, 0.0, 0.0, 0.0, -0.56, -0.57, 0.0, 0.0, 0.58, 0.0, 0.0, 0.0, 0.0, 0.0, 0.0, 0.0, 0.0, 0.56, 0.57, 0.62, 0.58, 0.58, 1.23, 1.12, 1.76, 2.32, 3.47, 4.12, 4.65, 4.8, 3.04, 1.7, 2.84, 1.24, 2.53, 4.85, 6.71, 6.71, 6.8, 5.72, 5.64, 3.69, 1.52, 0.0, 0.0, 1.53, 2.83, 1.36, 0.54, 0.0, 0.0, 1.26, 2.15, 2.91, 2.91, 2.5, 2.5, 1.88, 1.88, 1.16, 0.65, 0.0, 0.0, 0.0, 0.7, -2.26, -2.26, -2.26, -2.26, -2.4, -2.23, -2.37, -2.37, -2.89, -2.89, -2.89, -2.21, -2.37, -2.26, -3.04, -2.84, -2.44, -1.11, -1.23, -1.19, -1.16, -1.23, -1.1, -1.18, -1.18, -1.09, -1.09, -0.55, -0.58, -0.58, -0.58, -0.54, -0.57, -0.57, -0.57, 0.0, 0.0, -0.56, -0.61, -0.58, 0.0, 0.0, 0.0, 0.0, 0.0, 0.0, 0.0, 0.0, 0.0, 0.0, 0.0, 0.0, 0.58, 0.58, 0.58, 1.14, 1.23, 1.65, 2.77, 3.45, 4.12, 4.12, 4.65, 2.12, 1.7, 3.35, 3.48, 4.57, 6.26, 6.26, 6.26, 6.23, 6.01, 5.86, 6.1, 3.85, -0.78, -3.88, -4.17, -1.36, 0.7, 0.59, 0.0, 0.0, 1.34, 2.0, 2.4, 2.4, 2.15, 1.61, 1.2, 0.53, 0.61, 0.0, 0.0, 0.0, 0.0, 0.0, -2.26, -2.26, -2.26, -2.26, -2.23, -2.37, -2.37, -2.37, -2.37, -2.37, -2.33, -2.33, -1.78, -1.69, -2.26, -2.36, -1.58, -0.59, -0.57, -0.55, -1.16, -1.14, -1.2, -1.18, -1.18, -1.18, -1.18, -0.55, -0.55, -0.58, -0.58, -0.54, -0.54, -0.54, -0.57, -0.57, 0.0, -0.56, -0.56, -1.14, -0.59, 0.0, 0.0, 0.0, 0.0, 0.0, -0.59, -0.59, -0.56, 0.0, 0.0, 0.0, 0.58, 0.58, 0.58, 1.14, 1.14, 2.29, 2.77, 3.45, 3.72, 4.12, 3.49, 3.72, 3.39, 3.82, 3.6, 4.85, 6.26, 6.26, 5.36, 5.09, 5.06, 6.69, 8.94, 9.12, 6.1, 0.74, -1.49, -1.94, -1.61, -0.63, 0.0, 0.0, 0.89, 1.2, 1.49, 1.58, 1.2, 0.65, 0.0, 0.0, -0.51, -0.61, -1.4, -1.4, -1.4, 0.0, -2.75, -2.75, -2.26, -2.4, -2.23, -2.37, -2.37, -2.21, -2.21, -2.33, -1.78, -1.67, -1.75, -1.65, -1.11, -0.57, 0.0, 0.57, 0.0, -0.61, -1.16, -1.14, -1.12, -1.2, -1.1, -0.59, -0.59, -0.59, -0.55, -0.55, -0.58, -0.58, -0.54, -0.54, -0.54, -0.57, -0.56, -0.56, -0.56, -1.2, -0.58, 0.0, 0.0, 0.0, -0.53, 0.0, 0.0, -0.56, 0.0, 0.0, 0.0, 0.0, 0.58, 0.58, 0.58, 1.14, 1.14, 1.76, 2.29, 3.0, 3.45, 3.72, 4.19, 3.72, 3.82, 3.82, 3.2, 5.36, 5.81, 5.81, 5.29, 4.8, 5.01, 6.28, 8.15, 11.38, 12.77, 11.02, 7.13, 2.11, 0.0, -1.2, -1.7, -0.63, 0.0, 0.45, 0.63, 0.57, 0.0, 0.0, -1.16, -1.84, -1.84, -2.15, -1.74, -1.24, -1.26, -1.26, -2.75, -2.75, -2.92, -2.4, -2.23, -2.37, -2.37, -2.21, -1.69, -1.78, -1.67, -1.75, -1.11, -1.16, -1.16, 0.0, 1.14, 1.76, 1.07, -0.59, -1.05, -1.14, -1.23, -1.12, -1.2, -0.56, -0.59, -0.59, -0.59, -0.55, -0.55, -0.58, -0.58, -0.54, -0.58, -0.54, -0.57, -0.56, -0.56, -1.12, -1.14, -0.56, 0.0, 0.0, -0.58, -0.57, -0.61, 0.0, 0.0, 0.0, 0.0, 0.0, 0.0, 0.58, 0.58, 1.14, 1.12, 1.65, 2.32, 2.8, 3.45, 3.45, 3.47, 3.79, 4.24, 4.77, 5.36, 5.81, 5.36, 3.58, 4.41, 4.57, 5.2, 5.82, 6.7, 7.9, 9.39, 11.69, 12.73, 10.98, 8.38, 4.22, 0.0, -1.26, -0.0, 0.0, 0.0, 0.0, -0.61, -1.13, -1.84, -1.84, -1.88, -1.24, -0.6, 0.0, 0.0, 0.0, -2.92, -2.92, -2.92, -2.92, -2.23, -2.23, -2.37, -2.37, -1.69, -1.69, -1.67, -1.12, -1.18, -1.11, -0.56, 0.0, 0.56, 1.16, 0.61, -0.58, -0.58, -1.23, -1.12, -1.12, -1.12, -0.56, -0.59, -0.59, -0.59, -0.55, -0.55, -0.58, -0.58, -0.58, -0.58, -0.58, -0.57, -0.61, -0.56, -1.12, -1.14, -1.16, 0.0, 0.0, -0.53, -0.58, -0.57, -0.56, -0.56, -0.56, 0.0, 0.0, 0.0, 0.0, 0.0, 0.57, 1.12, 1.8, 2.36, 2.82, 2.8, 3.45, 3.84, 4.65, 4.77, 5.36, 5.36, 5.81, 4.02, 3.13, 3.95, 4.15, 4.8, 5.21, 4.29, 3.91, 4.87, 6.9, 9.42, 11.83, 13.59, 12.3, 7.11, 0.0, -0.0, -0.0, 0.0, -0.65, -1.16, -1.16, -1.2, -0.57, 0.0, 0.0, 0.45, 0.89, 0.89, 0.89, -2.92, -2.92, -2.92, -2.92, -2.73, -2.23, -2.23, -2.23, -2.37, -1.69, -1.78, -1.12, -1.12, -0.56, -0.56, 0.0, 0.0, 0.58, 0.0, 0.0, -0.57, -0.57, -0.57, -0.57, -0.57, -0.61, -0.56, -0.59, -0.55, -0.55, -0.55, -0.55, -0.58, -0.58, -1.16, -1.16, -1.07, -0.57, -0.56, -1.12, -1.2, -1.14, -0.56, 0.0, 0.0, -0.58, -0.58, -1.12, -1.2, -1.1, -0.61, -0.57, -0.57, 0.0, 0.0, 0.57, 1.14, 1.7, 1.7, 2.18, 3.04, 3.0, 3.47, 4.55, 5.7, 4.77, 4.34, 2.24, 2.68, 2.68, 4.77, 4.15, 3.83, 3.35, 2.6, 1.63, 2.44, 4.68, 6.87, 10.12, 12.39, 12.38, 10.9, 4.07, -0.0, 0.6, 0.0, 0.0, 0.0, 0.0, 0.0, 0.89, 0.89, 0.89, 1.2, 1.2, 1.2, 1.2, -2.92, -2.92, -2.92, -2.92, -2.73, -2.23, -2.23, -2.23, -2.23, -1.81, -1.69, -1.14, -1.12, -0.56, -0.57, 0.0, 0.0, 0.0, 0.0, 0.0, -0.56, -0.56, -0.56, -0.56, -0.56, -0.61, -0.56, -0.56, -0.59, -0.55, -0.55, -1.16, -1.16, -1.16, -1.16, -1.16, -1.16, -1.14, -0.57, -0.56, -1.12, -1.14, -1.16, -0.61, 0.0, 0.0, 0.0, -0.58, -0.57, -0.57, -0.57, -0.57, -0.57, -0.58, 0.0, 0.53, 1.16, 1.16, 1.73, 1.88, 2.36, 3.04, 3.49, 4.55, 5.24, 4.77, 4.24, 2.12, 2.17, 2.6, 3.74, 3.58, 2.41, 1.83, 1.55, 1.7, 3.33, 5.49, 7.18, 8.6, 11.14, 11.14, 10.12, 8.01, 1.26, -0.0, 0.0, 0.63, 1.26, 1.9, 2.21, 1.26, 1.26, 0.8, 0.8, 0.57, 0.57, 0.57, -2.92, -2.92, -2.92, -2.92, -2.92, -2.23, -2.23, -2.23, -2.23, -2.23, -1.81, -1.69, -1.14, -1.14, -0.57, -0.57, -0.58, -0.58, -0.58, -0.55, -0.55, -0.59, -0.59, -0.59, -0.56, -0.56, -0.56, -0.56, -0.59, -0.55, -0.58, -1.16, -1.16, -1.16, -1.16, -1.16, -1.16, -1.16, -1.14, -0.57, -1.2, -1.2, -1.14, -0.59, 0.0, 0.0, 0.0, 0.0, -0.58, -0.57, -0.57, -0.57, -0.58, 0.0, 0.54, 1.07, 1.19, 1.19, 1.19, 1.88, 2.36, 2.82, 3.49, 4.8, 4.6, 4.77, 3.82, 3.82, 3.82, 2.6, 3.2, 2.53, 1.8, 2.68, 3.58, 4.8, 6.4, 7.06, 7.02, 7.33, 8.53, 9.54, 10.23, 10.73, 3.16, -0.57, -0.54, 0.53, 1.16, 1.61, 1.2, 1.2, 1.2, 0.54, 0.54, 0.54, 0.54, 0.54, -2.92, -2.92, -2.92, -2.92, -2.92, -2.92, -2.23, -2.23, -2.23, -2.23, -2.23, -1.71, -1.81, -1.14, -1.07, -0.58, -0.58, -0.58, -0.58, -0.58, -0.58, -0.55, -0.59, -0.59, -0.59, 0.0, -0.59, -0.56, -0.59, -0.55, -0.58, -1.16, -1.16, -1.16, -1.16, -1.16, -1.16, -1.16, -1.14, -1.14, -1.14, -1.2, -1.69, -1.16, -0.61, 0.0, 0.0, 0.0, 0.0, 0.0, 0.0, 0.0, 0.0, 0.0, 0.61, 1.19, 1.19, 1.19, 1.19, 1.88, 2.36, 3.08, 3.79, 4.4, 4.11, 4.4, 4.24, 3.82, 2.8, 0.95, 0.63, 1.74, 3.22, 4.85, 6.26, 7.11, 7.21, 7.42, 7.69, 6.68, 6.88, 8.56, 11.73, 14.1, 9.2, -0.57, -1.27, -0.0, 1.61, 1.88, 1.88, 1.2, 1.2, 0.54, 0.54, 0.57, 0.57, 0.57, -2.92, -2.92, -2.92, -2.92, -2.92, -2.92, -2.23, -2.23, -2.23, -2.23, -2.23, -1.71, -1.71, -1.71, -1.16, -1.16, -1.16, -1.16, -1.16, -1.16, -1.16, -0.55, -0.59, -0.59, -0.59, -0.55, -0.55, -0.59, -1.18, -1.09, -1.16, -1.16, -1.16, -1.16, -1.16, -1.16, -1.16, -1.16, -1.16, -1.14, -1.14, -1.14, -1.69, -1.14, -0.59, 0.0, 0.0, 0.0, 0.0, 0.0, -0.59, 0.0, 0.0, 0.0, 1.19, 1.07, 1.07, 1.19, 1.88, 1.7, 2.18, 2.84, 3.48, 4.27, 4.11, 3.2, 3.2, 2.12, 1.26, 0.6, 1.6, 2.97, 4.92, 6.21, 6.71, 6.65, 6.51, 6.4, 7.07, 7.02, 7.27, 7.9, 10.51, 12.56, 11.45, 0.65, -0.0, 0.65, 1.58, 1.58, 1.58, 1.24, 0.71, 0.71, -0.0, -0.0, -0.0, -0.0, -2.92, -2.92, -2.92, -2.92, -2.92, -2.92, -2.23, -2.23, -2.23, -2.23, -2.23, -1.71, -1.71, -1.71, -1.16, -1.16, -1.16, -1.16, -1.16, -1.16, -1.16, -0.58, -0.55, -0.59, -0.59, -0.55, -0.58, -0.55, -1.18, -1.18, -1.09, -1.16, -1.16, -1.16, -1.16, -1.16, -1.16, -1.16, -1.16, -1.14, -1.14, -1.14, -1.69, -1.14, -1.16, -0.56, -0.57, 0.0, 0.0, 0.0, -0.59, -0.54, 0.0, 1.16, 1.16, 1.16, 1.16, 1.16, 1.7, 1.7, 2.4, 2.86, 3.43, 3.72, 3.35, 3.2, 3.2, 2.23, 2.53, 2.98, 2.97, 3.13, 3.2, 6.02, 5.75, 5.81, 5.59, 5.75, 6.07, 6.39, 7.35, 7.27, 7.97, 7.79, 7.88, -0.8, 1.0, 1.2, 0.89, 0.63, 0.89, 0.95, 0.6, -0.0, -0.0, -0.0, -0.0, -0.0, -2.92, -2.92, -2.92, -2.92, -2.92, -2.73, -2.23, -2.23, -2.23, -2.23, -2.23, -1.71, -1.71, -1.71, -1.71, -1.16, -1.16, -1.16, -1.16, -1.16, -1.16, -1.16, -0.55, -0.59, -1.18, -1.09, -1.16, -1.09, -0.59, -1.18, -1.09, -1.16, -1.16, -1.16, -1.16, -1.16, -1.16, -1.16, -1.16, -1.14, -1.14, -1.14, -1.69, -1.22, -1.16, -0.55, -0.56, 0.0, 0.0, -0.58, -0.58, -0.58, 0.0, 1.23, 1.8, 1.14, 1.16, 1.16, 1.16, 1.7, 1.73, 2.44, 3.16, 2.84, 3.14, 3.07, 2.6, 3.22, 3.83, 4.85, 4.41, 4.02, 3.07, 3.04, 4.15, 4.92, 5.29, 5.16, 5.43, 6.08, 6.73, 6.64, 5.64, 4.58, 0.71, 1.16, 2.17, 0.89, 0.0, -0.57, -0.95, 0.0, -0.0, -0.0, 0.32, 0.45, 0.45, 0.45, -2.92, -2.92, -2.92, -2.92, -2.73, -2.73, -2.23, -2.23, -2.23, -2.23, -2.23, -1.71, -1.73, -1.73, -1.73, -1.61, -1.61, -1.61, -1.18, -1.09, -1.09, -1.16, -1.16, -1.09, -1.09, -1.09, -1.09, -1.18, -1.18, -1.18, -1.16, -1.16, -1.16, -1.16, -1.16, -1.16, -1.16, -1.16, -1.16, -1.16, -1.14, -1.14, -1.69, -1.16, -1.16, -0.55, -0.59, 0.0, 0.0, 0.0, 0.0, 0.0, 0.0, 1.2, 1.12, 0.58, 0.59, 0.54, 1.07, 1.19, 1.73, 2.48, 2.84, 2.84, 3.14, 3.07, 2.8, 3.74, 4.85, 4.92, 4.92, 4.92, 5.36, 4.85, 3.95, 3.13, 4.02, 4.41, 4.4, 5.46, 5.77, 6.32, 5.64, 2.33, 1.39, 2.24, 2.15, 1.34, -0.32, -2.12, -1.79, -0.89, 0.0, 0.45, 0.8, 1.6, 1.6, 1.6, -2.92, -2.92, -2.92, -2.92, -2.73, -2.73, -2.23, -2.23, -2.23, -2.23, -2.23, -1.71, -1.73, -1.73, -1.73, -1.73, -1.73, -1.73, -1.18, -1.18, -1.18, -1.09, -1.09, -1.09, -1.09, -1.09, -1.18, -1.18, -1.18, -1.09, -1.16, -1.16, -1.16, -1.16, -1.16, -1.16, -1.16, -1.16, -1.16, -1.16, -1.14, -1.14, -1.69, -1.16, -1.16, -0.59, 0.0, 0.0, 0.0, 0.0, 0.0, 0.0, 1.18, 1.1, 0.57, 0.0, 0.0, 0.61, 1.19, 1.19, 1.76, 2.23, 2.51, 2.23, 2.53, 3.07, 3.07, 3.98, 4.02, 4.38, 4.15, 3.6, 3.9, 3.95, 3.2, 3.51, 4.41, 4.41, 5.43, 4.81, 5.46, 6.01, 5.55, 7.0, 5.54, 1.58, 1.84, 1.88, 0.54, -0.53, -0.54, -0.0, 0.63, 1.6, 1.86, 2.4, 2.4, 2.4, -2.92, -2.92, -2.92, -2.92, -2.73, -2.73, -2.73, -2.23, -2.23, -2.23, -2.4, -1.84, -1.73, -1.73, -1.73, -1.73, -1.73, -1.73, -1.73, -1.73, -1.73, -1.73, -1.18, -1.09, -1.09, -1.18, -1.18, -1.18, -1.09, -1.09, -1.09, -1.09, -1.09, -1.09, -1.16, -1.16, -1.16, -1.16, -1.16, -1.16, -1.16, -1.14, -1.14, -1.16, -1.09, -0.59, 0.0, 0.0, 0.0, 0.0, 0.0, 0.0, 0.56, 0.56, 0.0, 0.0, 0.0, 0.61, 1.19, 1.19, 1.76, 2.23, 2.23, 1.84, 2.53, 2.5, 3.32, 3.97, 3.58, 3.6, 2.84, 2.21, 2.23, 2.6, 2.23, 2.15, 3.74, 4.92, 5.2, 5.21, 4.81, 5.06, 6.33, 8.62, 8.86, 2.4, 0.59, 1.33, 1.27, 0.57, 0.61, 1.7, 2.17, 2.4, 2.91, 3.32, 3.32, 3.32, -2.92, -2.92, -2.92, -2.92, -2.92, -2.73, -2.73, -2.23, -2.4, -2.4, -2.4, -2.4, -1.73, -1.73, -1.73, -1.73, -1.73, -1.73, -1.73, -1.73, -1.73, -1.73, -1.73, -1.18, -1.18, -1.18, -1.18, -1.18, -1.73, -1.73, -1.18, -1.18, -1.09, -1.09, -1.09, -1.09, -1.09, -1.16, -1.16, -1.16, -1.16, -1.16, -1.14, -1.16, -1.16, -0.59, -0.61, 0.0, 0.0, 0.0, 0.0, 0.0, 0.0, 0.0, 0.0, 0.0, 0.0, 0.61, 1.19, 1.23, 1.8, 1.6, 1.84, 1.84, 1.88, 2.15, 2.91, 3.53, 3.53, 1.86, 0.8, 1.9, 1.9, 1.26, 2.23, 2.21, 1.49, 3.47, 3.74, 4.22, 4.19, 4.03, 4.92, 5.38, 6.87, 3.07, 0.0, -0.0, 1.16, 1.2, 1.9, 3.07, 3.53, 3.82, 3.32, 3.74, 3.74, 3.74, -2.92, -2.92, -2.92, -2.92, -2.92, -2.92, -2.92, -2.4, -2.4, -2.4, -2.4, -2.26, -1.73, -1.73, -1.73, -1.73, -1.73, -1.73, -1.73, -1.63, -1.63, -1.63, -1.73, -1.18, -1.18, -1.18, -1.73, -1.73, -1.73, -1.73, -1.18, -1.18, -1.18, -1.18, -1.18, -1.18, -1.18, -1.09, -1.09, -1.09, -1.09, -1.16, -1.16, -1.16, -1.16, -1.18, -0.61, -0.57, 0.0, 0.0, 0.0, 0.0, 0.0, 0.0, 0.0, 0.0, 0.0, 0.61, 0.61, 1.23, 1.27, 1.13, 1.33, 1.16, 1.2, 2.23, 2.6, 3.13, 3.13, 1.6, 0.8, 1.0, 1.24, 1.9, 2.23, 3.58, 2.84, 2.6, 3.13, 3.47, 2.68, 2.47, 2.44, 1.58, 1.59, 1.57, 0.0, -1.2, -0.0, 0.89, 2.68, 3.58, 4.43, 4.66, 4.0, 4.93, 4.93, 4.93, -2.92, -2.92, -2.92, -2.92, -2.92, -2.92, -2.92, -2.92, -2.4, -2.4, -2.26, -2.26, -1.73, -1.73, -1.73, -1.73, -1.73, -1.73, -1.63, -1.63, -1.63, -1.63, -1.63, -1.73, -1.73, -1.73, -1.73, -1.73, -1.73, -1.18, -1.18, -1.18, -1.18, -1.18, -1.18, -1.18, -1.18, -1.18, -1.18, -1.18, -1.18, -1.09, -1.16, -1.16, -1.16, -1.18, -0.61, -0.57, 0.0, 0.0, 0.0, 0.0, 0.0, 0.0, 0.0, 0.0, 0.0, 0.61, 0.55, 1.11, 1.13, 1.13, 0.59, 0.61, 1.2, 1.58, 2.12, 2.68, 2.68, 1.34, 0.6, 0.85, 1.49, 2.15, 1.9, 2.84, 1.98, 1.9, 2.0, 2.23, 1.6, 0.88, 0.76, 0.0, 0.0, 0.0, 0.0, -0.7, -0.6, 0.6, 2.68, 4.43, 5.2, 5.86, 5.6, 6.0, 6.0, 6.0, -2.92, -2.92, -2.92, -2.92, -2.92, -2.92, -2.92, -2.92, -2.4, -2.26, -2.26, -2.26, -1.73, -1.73, -1.73, -1.73, -1.73, -1.63, -1.63, -1.76, -1.76, -1.63, -1.63, -1.73, -1.73, -1.73, -1.73, -1.73, -1.73, -1.18, -1.18, -1.18, -1.18, -1.18, -1.18, -1.18, -1.18, -1.18, -1.18, -1.18, -1.18, -1.09, -1.16, -1.16, -1.71, -1.18, -0.61, -0.57, -0.57, -0.57, -0.57, 0.0, -0.57, -0.57, 0.0, 0.0, 0.0, 0.0, 0.55, 0.57, 0.59, 0.59, 0.51, 0.61, 0.54, 1.26, 1.79, 1.79, 1.79, 1.79, 1.86, 0.71, 1.2, 1.2, 1.2, 1.24, 1.74, 1.9, 1.79, 2.0, 1.74, 0.88, 0.0, 0.0, 0.0, 0.0, 0.0, 0.0, 0.0, 0.66, 2.51, 4.0, 6.11, 6.36, 6.25, 6.08, 6.08, 6.08, -2.92, -2.92, -2.92, -2.92, -2.92, -2.92, -2.92, -2.92, -2.4, -2.26, -2.26, -2.26, -1.73, -1.73, -1.73, -1.73, -1.73, -1.63, -1.63, -1.63, -1.76, -1.76, -1.63, -1.73, -1.73, -1.73, -1.73, -1.73, -1.73, -1.73, -1.18, -1.18, -1.18, -1.18, -1.18, -1.18, -1.18, -1.18, -1.18, -1.18, -1.18, -1.18, -1.16, -1.71, -1.71, -1.18, -1.2, -0.57, -0.57, -0.57, -0.57, -0.57, -0.57, -0.57, -0.58, 0.0, 0.0, 0.0, 0.57, 0.57, 0.59, 0.0, 0.0, 0.0, 0.71, 0.8, 0.63, 0.89, 1.34, 1.34, 1.7, 0.6, 0.8, 1.13, 0.54, 1.49, 1.26, 2.0, 1.79, 2.0, 0.99, 0.88, 0.79, 0.79, 0.77, 1.57, 1.59, 1.6, 2.11, 2.0, 1.76, 3.14, 5.16, 5.44, 5.31, 4.75, 4.75, 4.75, -2.92, -2.92, -2.92, -2.92, -2.92, -2.92, -2.92, -2.92, -2.75, -2.26, -2.26, -2.26, -1.63, -1.63, -1.63, -1.63, -1.63, -1.63, -1.73, -1.63, -1.76, -1.76, -1.63, -1.63, -1.63, -1.73, -1.73, -1.73, -1.73, -1.63, -1.63, -1.63, -1.63, -1.63, -1.1, -1.18, -1.18, -1.18, -1.73, -1.73, -1.18, -1.18, -1.16, -1.71, -1.61, -1.1, -1.2, -0.57, -0.57, -0.57, -0.57, -0.57, -0.57, -0.57, -0.53, -0.54, 0.0, 0.0, 0.0, 0.0, 0.0, 0.0, 0.0, 0.0, 0.0, 0.0, 0.0, 0.0, 0.0, 0.89, 1.34, 1.79, 1.79, 2.21, 1.74, 1.74, 1.26, 2.0, 2.24, 2.0, 1.74, 0.81, 0.79, 0.78, 1.55, 3.16, 4.01, 3.91, 2.99, 3.11, 3.0, 2.84, 3.07, 3.07, 2.79, 2.84, 2.84, 2.84, -2.92, -2.92, -2.92, -2.92, -2.92, -2.92, -2.92, -2.92, -2.75, -2.26, -2.26, -2.26, -1.63, -1.63, -1.63, -1.63, -1.63, -1.63, -1.73, -1.63, -1.76, -1.76, -1.63, -1.63, -1.63, -1.73, -1.73, -1.73, -1.73, -1.63, -1.63, -1.63, -1.63, -1.63, -1.1, -1.18, -1.18, -1.18, -1.73, -1.73, -1.18, -1.18, -1.16, -1.71, -1.61, -1.1, -1.2, -0.57, -0.57, -0.57, -0.57, -0.57, -0.57, -0.57, -0.53, -0.54, 0.0, 0.0, 0.0, 0.0, 0.0, 0.0, 0.0, 0.0, 0.0, 0.0, 0.0, 0.0, 0.0, 0.89, 1.34, 1.79, 1.79, 2.21, 1.74, 1.74, 1.9, 2.0, 2.24, 2.0, 1.74, 1.83, 1.63, 1.6, 2.28, 3.83, 5.46, 5.56, 5.45, 4.48, 3.88, 2.73, 2.21, 1.9, 1.61, 1.4, 1.4, 1.4]}]